Observation data for Lesley on 12/09/2018      Previous  Date       Current Mesonet Observations  Soil Data  Daily Summary Page  Observations in Plain Language
KLE1 090600Z 28005KT M04/M06 A3034 RMK A01 T10371055  RH  087%=      5-min Rain = 0
KLE1 090601Z 28005KT M04/M06 A3034 RMK A01 T10381056  RH  087%=      5-min Rain = 0
KLE1 090602Z 28005KT M04/M06 A3034 RMK A01 T10381055  RH  088%=      5-min Rain = 0
KLE1 090603Z 28005KT M04/M06 A3033 RMK A01 T10381055  RH  088%=      5-min Rain = 0
KLE1 090604Z 28005KT M04/M06 A3033 RMK A01 T10381055  RH  088%=      5-min Rain = 0
KLE1 090605Z 29005KT M04/M06 A3033 RMK A01 T10381055  RH  088%=      5-min Rain = 0
KLE1 090606Z 29006KT M04/M06 A3033 RMK A01 T10381055  RH  088%=      5-min Rain = 0
KLE1 090607Z 29005KT M04/M06 A3033 RMK A01 T10381055  RH  088%=      5-min Rain = 0
KLE1 090608Z 29005KT M04/M06 A3033 RMK A01 T10381055  RH  088%=      5-min Rain = 0
KLE1 090609Z 29005KT M04/M06 A3033 RMK A01 T10381055  RH  088%=      5-min Rain = 0
KLE1 090610Z 29005KT M04/M06 A3033 RMK A01 T10381055  RH  088%=      5-min Rain = 0
KLE1 090611Z 29005KT M04/M06 A3033 RMK A01 T10391056  RH  088%=      5-min Rain = 0
KLE1 090612Z 29005KT M04/M06 A3033 RMK A01 T10401057  RH  088%=      5-min Rain = 0
KLE1 090613Z 29005KT M04/M06 A3034 RMK A01 T10391056  RH  088%=      5-min Rain = 0
KLE1 090614Z 30005KT M04/M06 A3034 RMK A01 T10391056  RH  088%=      5-min Rain = 0
KLE1 090615Z 30004KT M04/M06 A3034 RMK A01 T10391056  RH  088%=      5-min Rain = 0
KLE1 090616Z 29004KT M04/M06 A3033 RMK A01 T10391056  RH  088%=      5-min Rain = 0
KLE1 090617Z 30004KT M04/M06 A3033 RMK A01 T10401057  RH  088%=      5-min Rain = 0
KLE1 090618Z 30005KT M04/M06 A3033 RMK A01 T10401056  RH  088%=      5-min Rain = 0
KLE1 090619Z 29005KT M04/M06 A3033 RMK A01 T10401057  RH  088%=      5-min Rain = 0
KLE1 090620Z 29004KT M04/M06 A3033 RMK A01 T10391057  RH  088%=      5-min Rain = 0
KLE1 090621Z 29005KT M04/M06 A3033 RMK A01 T10391057  RH  087%=      5-min Rain = 0
KLE1 090622Z 30005KT M04/M06 A3033 RMK A01 T10391057  RH  087%=      5-min Rain = 0
KLE1 090623Z 30005KT M04/M06 A3033 RMK A01 T10391057  RH  087%=      5-min Rain = 0
KLE1 090624Z 30005KT M04/M06 A3033 RMK A01 T10391058  RH  087%=      5-min Rain = 0
KLE1 090625Z 29005KT M04/M06 A3033 RMK A01 T10391058  RH  087%=      5-min Rain = 0
KLE1 090626Z 29005KT M04/M06 A3033 RMK A01 T10391058  RH  087%=      5-min Rain = 0
KLE1 090627Z 30005KT M04/M06 A3033 RMK A01 T10391058  RH  087%=      5-min Rain = 0
KLE1 090628Z 29005KT M04/M06 A3033 RMK A01 T10401059  RH  087%=      5-min Rain = 0
KLE1 090629Z 29005KT M04/M06 A3033 RMK A01 T10401059  RH  087%=      5-min Rain = 0
KLE1 090630Z 30005KT M04/M06 A3033 RMK A01 T10401059  RH  087%=      5-min Rain = 0
KLE1 090631Z 30005KT M04/M06 A3033 RMK A01 T10401059  RH  087%=      5-min Rain = 0
KLE1 090632Z 30005KT M04/M06 A3033 RMK A01 T10401059  RH  087%=      5-min Rain = 0
KLE1 090633Z 30004KT M04/M06 A3033 RMK A01 T10401059  RH  087%=      5-min Rain = 0
KLE1 090634Z 29005KT M04/M06 A3033 RMK A01 T10411060  RH  087%=      5-min Rain = 0
KLE1 090635Z 30005KT M04/M06 A3033 RMK A01 T10411060  RH  087%=      5-min Rain = 0
KLE1 090636Z 30004KT M04/M06 A3033 RMK A01 T10411060  RH  087%=      5-min Rain = 0
KLE1 090637Z 31005KT M04/M06 A3033 RMK A01 T10411061  RH  086%=      5-min Rain = 0
KLE1 090638Z 30005KT M04/M06 A3033 RMK A01 T10421062  RH  086%=      5-min Rain = 0
KLE1 090639Z 30005KT M04/M06 A3033 RMK A01 T10421062  RH  086%=      5-min Rain = 0
KLE1 090640Z 31005KT M04/M06 A3033 RMK A01 T10431062  RH  086%=      5-min Rain = 0
KLE1 090641Z 31005KT M04/M06 A3033 RMK A01 T10421062  RH  086%=      5-min Rain = 0
KLE1 090642Z 31005KT M04/M06 A3033 RMK A01 T10421062  RH  086%=      5-min Rain = 0
KLE1 090643Z 31005KT M04/M06 A3033 RMK A01 T10421062  RH  086%=      5-min Rain = 0
KLE1 090644Z 31005KT M04/M06 A3033 RMK A01 T10411062  RH  085%=      5-min Rain = 0
KLE1 090645Z 31006KT M04/M06 A3033 RMK A01 T10411063  RH  085%=      5-min Rain = 0
KLE1 090646Z 31005KT M04/M06 A3033 RMK A01 T10411063  RH  085%=      5-min Rain = 0
KLE1 090647Z 31006KT M04/M06 A3033 RMK A01 T10411063  RH  085%=      5-min Rain = 0
KLE1 090648Z 31006KT M04/M06 A3033 RMK A01 T10411063  RH  085%=      5-min Rain = 0
KLE1 090649Z 31006KT M04/M06 A3033 RMK A01 T10421063  RH  085%=      5-min Rain = 0
KLE1 090650Z 31006KT M04/M06 A3033 RMK A01 T10421063  RH  085%=      5-min Rain = 0
KLE1 090651Z 31006KT M04/M06 A3033 RMK A01 T10421063  RH  085%=      5-min Rain = 0
KLE1 090652Z 31006KT M04/M06 A3033 RMK A01 T10421063  RH  085%=      5-min Rain = 0
KLE1 090653Z 31006KT M04/M06 A3033 RMK A01 T10421063  RH  085%=      5-min Rain = 0
KLE1 090654Z 31006KT M04/M06 A3033 RMK A01 T10421063  RH  085%=      5-min Rain = 0
KLE1 090655Z 31006KT M04/M06 A3033 RMK A01 T10421064  RH  085%=      5-min Rain = 0
KLE1 090656Z 31006KT M04/M06 A3033 RMK A01 T10421063  RH  085%=      5-min Rain = 0
KLE1 090657Z 31006KT M04/M06 A3033 RMK A01 T10421063  RH  085%=      5-min Rain = 0
KLE1 090658Z 31007KT M04/M06 A3033 RMK A01 T10411064  RH  085%=      5-min Rain = 0
KLE1 090659Z 31007KT M04/M06 A3033 RMK A01 T10411064  RH  084%=      5-min Rain = 0
KLE1 090700Z 31006KT M04/M06 A3033 RMK A01 T10411064  RH  084%=      5-min Rain = 0
KLE1 090701Z 30006KT M04/M06 A3033 RMK A01 T10411064  RH  084%=      5-min Rain = 0
KLE1 090702Z 31006KT M04/M06 A3033 RMK A01 T10411064  RH  084%=      5-min Rain = 0
KLE1 090703Z 31006KT M04/M06 A3033 RMK A01 T10421064  RH  084%=      5-min Rain = 0
KLE1 090704Z 31006KT M04/M07 A3033 RMK A01 T10421065  RH  084%=      5-min Rain = 0
KLE1 090705Z 31006KT M04/M07 A3033 RMK A01 T10421065  RH  084%=      5-min Rain = 0
KLE1 090706Z 31006KT M04/M07 A3033 RMK A01 T10421065  RH  084%=      5-min Rain = 0
KLE1 090707Z 31006KT M04/M07 A3033 RMK A01 T10431066  RH  084%=      5-min Rain = 0
KLE1 090708Z 31006KT M04/M07 A3033 RMK A01 T10431066  RH  084%=      5-min Rain = 0
KLE1 090709Z 31006KT M04/M07 A3033 RMK A01 T10421066  RH  084%=      5-min Rain = 0
KLE1 090710Z 31006KT M04/M07 A3033 RMK A01 T10431066  RH  084%=      5-min Rain = 0
KLE1 090711Z 31006KT M04/M07 A3033 RMK A01 T10431067  RH  083%=      5-min Rain = 0
KLE1 090712Z 32006KT M04/M07 A3033 RMK A01 T10421067  RH  083%=      5-min Rain = 0
KLE1 090713Z 31006KT M04/M07 A3033 RMK A01 T10421068  RH  082%=      5-min Rain = 0
KLE1 090714Z 31006KT M04/M07 A3033 RMK A01 T10421069  RH  082%=      5-min Rain = 0
KLE1 090715Z 31006KT M04/M07 A3033 RMK A01 T10421069  RH  082%=      5-min Rain = 0
KLE1 090716Z 31006KT M04/M07 A3033 RMK A01 T10421069  RH  081%=      5-min Rain = 0
KLE1 090717Z 31006KT M04/M07 A3033 RMK A01 T10421069  RH  081%=      5-min Rain = 0
KLE1 090718Z 30005KT M04/M07 A3033 RMK A01 T10411069  RH  081%=      5-min Rain = 0
KLE1 090719Z 30005KT M04/M07 A3033 RMK A01 T10421069  RH  081%=      5-min Rain = 0
KLE1 090720Z 31005KT M04/M07 A3033 RMK A01 T10431070  RH  081%=      5-min Rain = 0
KLE1 090721Z 31005KT M04/M07 A3033 RMK A01 T10431069  RH  082%=      5-min Rain = 0
KLE1 090722Z 31006KT M04/M07 A3033 RMK A01 T10421069  RH  081%=      5-min Rain = 0
KLE1 090723Z 31005KT M04/M07 A3033 RMK A01 T10411069  RH  081%=      5-min Rain = 0
KLE1 090724Z 30005KT M04/M07 A3033 RMK A01 T10411070  RH  080%=      5-min Rain = 0
KLE1 090725Z 30005KT M04/M07 A3033 RMK A01 T10411070  RH  080%=      5-min Rain = 0
KLE1 090726Z 30005KT M04/M07 A3033 RMK A01 T10411070  RH  080%=      5-min Rain = 0
KLE1 090727Z 31005KT M04/M07 A3033 RMK A01 T10411070  RH  080%=      5-min Rain = 0
KLE1 090728Z 31005KT M04/M07 A3033 RMK A01 T10421070  RH  081%=      5-min Rain = 0
KLE1 090729Z 31005KT M04/M07 A3033 RMK A01 T10431071  RH  081%=      5-min Rain = 0
KLE1 090730Z 31006KT M04/M07 A3033 RMK A01 T10431071  RH  081%=      5-min Rain = 0
KLE1 090731Z 31006KT M04/M07 A3033 RMK A01 T10441072  RH  081%=      5-min Rain = 0
KLE1 090732Z 31006KT M04/M07 A3033 RMK A01 T10441072  RH  081%=      5-min Rain = 0
KLE1 090733Z 31005KT M04/M07 A3033 RMK A01 T10441073  RH  080%=      5-min Rain = 0
KLE1 090734Z 31005KT M04/M07 A3033 RMK A01 T10441073  RH  080%=      5-min Rain = 0
KLE1 090735Z 31005KT M05/M07 A3033 RMK A01 T10451074  RH  081%=      5-min Rain = 0
KLE1 090736Z 31005KT M05/M07 A3033 RMK A01 T10451073  RH  081%=      5-min Rain = 0
KLE1 090737Z 31006KT M05/M07 A3033 RMK A01 T10451074  RH  081%=      5-min Rain = 0
KLE1 090738Z 31005KT M05/M07 A3033 RMK A01 T10451074  RH  080%=      5-min Rain = 0
KLE1 090739Z 31005KT M05/M08 A3033 RMK A01 T10451075  RH  079%=      5-min Rain = 0
KLE1 090740Z 31005KT M04/M08 A3033 RMK A01 T10441075  RH  079%=      5-min Rain = 0
KLE1 090741Z 31005KT M04/M08 A3033 RMK A01 T10441075  RH  079%=      5-min Rain = 0
KLE1 090742Z 31005KT M05/M08 A3033 RMK A01 T10451075  RH  079%=      5-min Rain = 0
KLE1 090743Z 32005KT M05/M08 A3032 RMK A01 T10451075  RH  080%=      5-min Rain = 0
KLE1 090744Z 32006KT M05/M08 A3032 RMK A01 T10461075  RH  080%=      5-min Rain = 0
KLE1 090745Z 32006KT M05/M08 A3032 RMK A01 T10461076  RH  079%=      5-min Rain = 0
KLE1 090746Z 32006KT M04/M08 A3032 RMK A01 T10441077  RH  078%=      5-min Rain = 0
KLE1 090747Z 32006KT M04/M08 A3032 RMK A01 T10431077  RH  077%=      5-min Rain = 0
KLE1 090748Z 32006KT M04/M08 A3032 RMK A01 T10431078  RH  076%=      5-min Rain = 0
KLE1 090749Z 33006KT M04/M08 A3032 RMK A01 T10421079  RH  075%=      5-min Rain = 0
KLE1 090750Z 33006KT M04/M08 A3032 RMK A01 T10411080  RH  074%=      5-min Rain = 0
KLE1 090751Z 32005KT M04/M08 A3032 RMK A01 T10401080  RH  074%=      5-min Rain = 0
KLE1 090752Z 32005KT M04/M08 A3032 RMK A01 T10401081  RH  073%=      5-min Rain = 0
KLE1 090753Z 32005KT M04/M08 A3032 RMK A01 T10391081  RH  072%=      5-min Rain = 0
KLE1 090754Z 32005KT M04/M08 A3032 RMK A01 T10381082  RH  071%=      5-min Rain = 0
KLE1 090755Z 32005KT M04/M08 A3032 RMK A01 T10371083  RH  071%=      5-min Rain = 0
KLE1 090756Z 32005KT M04/M08 A3032 RMK A01 T10371083  RH  070%=      5-min Rain = 0
KLE1 090757Z 32004KT M04/M08 A3032 RMK A01 T10371083  RH  070%=      5-min Rain = 0
KLE1 090758Z 32004KT M04/M08 A3032 RMK A01 T10371083  RH  070%=      5-min Rain = 0
KLE1 090759Z 32004KT M04/M08 A3032 RMK A01 T10361082  RH  070%=      5-min Rain = 0
KLE1 090800Z 31004KT M04/M08 A3032 RMK A01 T10361082  RH  071%=      5-min Rain = 0
KLE1 090801Z 31004KT M04/M08 A3032 RMK A01 T10361081  RH  071%=      5-min Rain = 0
KLE1 090802Z 31004KT M04/M08 A3032 RMK A01 T10381080  RH  072%=      5-min Rain = 0
KLE1 090803Z 31005KT M04/M08 A3032 RMK A01 T10401080  RH  073%=      5-min Rain = 0
KLE1 090804Z 30005KT M04/M08 A3033 RMK A01 T10411080  RH  074%=      5-min Rain = 0
KLE1 090805Z 29005KT M04/M08 A3033 RMK A01 T10421079  RH  075%=      5-min Rain = 0
KLE1 090806Z 29005KT M04/M08 A3033 RMK A01 T10441079  RH  077%=      5-min Rain = 0
KLE1 090807Z 30005KT M05/M08 A3033 RMK A01 T10471078  RH  079%=      5-min Rain = 0
KLE1 090808Z 31005KT M05/M08 A3033 RMK A01 T10471077  RH  080%=      5-min Rain = 0
KLE1 090809Z 31005KT M05/M08 A3033 RMK A01 T10481077  RH  080%=      5-min Rain = 0
KLE1 090810Z 30005KT M05/M08 A3033 RMK A01 T10491077  RH  080%=      5-min Rain = 0
KLE1 090811Z 30005KT M05/M08 A3033 RMK A01 T10491077  RH  081%=      5-min Rain = 0
KLE1 090812Z 30005KT M05/M08 A3033 RMK A01 T10501077  RH  081%=      5-min Rain = 0
KLE1 090813Z 30005KT M05/M08 A3033 RMK A01 T10511077  RH  082%=      5-min Rain = 0
KLE1 090814Z 30005KT M05/M08 A3033 RMK A01 T10511077  RH  082%=      5-min Rain = 0
KLE1 090815Z 30005KT M05/M08 A3033 RMK A01 T10511077  RH  082%=      5-min Rain = 0
KLE1 090816Z 29005KT M05/M08 A3033 RMK A01 T10511077  RH  082%=      5-min Rain = 0
KLE1 090817Z 29005KT M05/M08 A3033 RMK A01 T10511077  RH  082%=      5-min Rain = 0
KLE1 090818Z 29005KT M05/M08 A3033 RMK A01 T10511077  RH  082%=      5-min Rain = 0
KLE1 090819Z 30005KT M05/M08 A3033 RMK A01 T10511076  RH  083%=      5-min Rain = 0
KLE1 090820Z 30004KT M05/M08 A3033 RMK A01 T10511075  RH  083%=      5-min Rain = 0
KLE1 090821Z 30005KT M05/M08 A3033 RMK A01 T10511075  RH  084%=      5-min Rain = 0
KLE1 090822Z 30005KT M05/M08 A3033 RMK A01 T10511076  RH  083%=      5-min Rain = 0
KLE1 090823Z 30005KT M05/M08 A3033 RMK A01 T10511076  RH  082%=      5-min Rain = 0
KLE1 090824Z 31005KT M05/M08 A3033 RMK A01 T10511076  RH  083%=      5-min Rain = 0
KLE1 090825Z 30005KT M05/M08 A3033 RMK A01 T10511075  RH  083%=      5-min Rain = 0
KLE1 090826Z 29004KT M05/M08 A3033 RMK A01 T10511075  RH  083%=      5-min Rain = 0
KLE1 090827Z 30005KT M05/M08 A3033 RMK A01 T10511075  RH  084%=      5-min Rain = 0
KLE1 090828Z 30005KT M05/M07 A3033 RMK A01 T10521074  RH  085%=      5-min Rain = 0
KLE1 090829Z 31005KT M05/M07 A3033 RMK A01 T10521073  RH  085%=      5-min Rain = 0
KLE1 090830Z 31006KT M05/M07 A3033 RMK A01 T10521074  RH  085%=      5-min Rain = 0
KLE1 090831Z 31005KT M05/M08 A3033 RMK A01 T10521075  RH  083%=      5-min Rain = 0
KLE1 090832Z 31006KT M05/M08 A3033 RMK A01 T10511077  RH  082%=      5-min Rain = 0
KLE1 090833Z 31005KT M05/M08 A3033 RMK A01 T10501078  RH  081%=      5-min Rain = 0
KLE1 090834Z 31005KT M05/M08 A3033 RMK A01 T10491079  RH  080%=      5-min Rain = 0
KLE1 090835Z 31005KT M05/M08 A3033 RMK A01 T10491079  RH  079%=      5-min Rain = 0
KLE1 090836Z 31005KT M05/M08 A3033 RMK A01 T10491079  RH  079%=      5-min Rain = 0
KLE1 090837Z 31006KT M05/M08 A3033 RMK A01 T10491079  RH  079%=      5-min Rain = 0
KLE1 090838Z 32005KT M05/M08 A3033 RMK A01 T10481080  RH  078%=      5-min Rain = 0
KLE1 090839Z 32005KT M05/M08 A3033 RMK A01 T10471081  RH  077%=      5-min Rain = 0
KLE1 090840Z 32005KT M05/M08 A3033 RMK A01 T10471082  RH  076%=      5-min Rain = 0
KLE1 090841Z 32005KT M05/M08 A3033 RMK A01 T10461083  RH  076%=      5-min Rain = 0
KLE1 090842Z 31005KT M05/M08 A3033 RMK A01 T10461083  RH  076%=      5-min Rain = 0
KLE1 090843Z 30005KT M05/M08 A3033 RMK A01 T10461083  RH  075%=      5-min Rain = 0
KLE1 090844Z 30005KT M05/M08 A3033 RMK A01 T10461083  RH  075%=      5-min Rain = 0
KLE1 090845Z 30004KT M05/M08 A3034 RMK A01 T10461082  RH  076%=      5-min Rain = 0
KLE1 090846Z 30004KT M05/M08 A3034 RMK A01 T10481082  RH  077%=      5-min Rain = 0
KLE1 090847Z 31005KT M05/M08 A3034 RMK A01 T10501081  RH  079%=      5-min Rain = 0
KLE1 090848Z 31005KT M05/M08 A3034 RMK A01 T10511080  RH  080%=      5-min Rain = 0
KLE1 090849Z 31005KT M05/M08 A3034 RMK A01 T10521080  RH  081%=      5-min Rain = 0
KLE1 090850Z 31005KT M05/M08 A3034 RMK A01 T10521078  RH  082%=      5-min Rain = 0
KLE1 090851Z 31005KT M05/M08 A3034 RMK A01 T10531078  RH  082%=      5-min Rain = 0
KLE1 090852Z 31006KT M05/M08 A3034 RMK A01 T10531078  RH  083%=      5-min Rain = 0
KLE1 090853Z 31006KT M05/M08 A3034 RMK A01 T10531078  RH  082%=      5-min Rain = 0
KLE1 090854Z 31006KT M05/M08 A3034 RMK A01 T10531079  RH  081%=      5-min Rain = 0
KLE1 090855Z 31006KT M05/M08 A3034 RMK A01 T10531081  RH  081%=      5-min Rain = 0
KLE1 090856Z 31006KT M05/M08 A3034 RMK A01 T10521082  RH  080%=      5-min Rain = 0
KLE1 090857Z 32006KT M05/M08 A3034 RMK A01 T10521082  RH  079%=      5-min Rain = 0
KLE1 090858Z 32008KT M05/M08 A3034 RMK A01 T10511083  RH  079%=      5-min Rain = 0
KLE1 090859Z 32008KT M05/M08 A3034 RMK A01 T10511084  RH  078%=      5-min Rain = 0
KLE1 090900Z 32007KT M05/M09 A3034 RMK A01 T10491085  RH  076%=      5-min Rain = 0
KLE1 090901Z 32007KT M05/M09 A3034 RMK A01 T10481085  RH  076%=      5-min Rain = 0
KLE1 090902Z 31007KT M05/M09 A3034 RMK A01 T10481085  RH  075%=      5-min Rain = 0
KLE1 090903Z 31007KT M05/M09 A3034 RMK A01 T10481086  RH  075%=      5-min Rain = 0
KLE1 090904Z 32007KT M05/M09 A3034 RMK A01 T10481086  RH  075%=      5-min Rain = 0
KLE1 090905Z 32007KT M05/M09 A3034 RMK A01 T10471086  RH  074%=      5-min Rain = 0
KLE1 090906Z 32007KT M05/M09 A3034 RMK A01 T10471087  RH  074%=      5-min Rain = 0
KLE1 090907Z 32007KT M05/M09 A3034 RMK A01 T10471086  RH  074%=      5-min Rain = 0
KLE1 090908Z 32007KT M05/M09 A3033 RMK A01 T10461087  RH  073%=      5-min Rain = 0
KLE1 090909Z 32006KT M05/M09 A3033 RMK A01 T10461087  RH  073%=      5-min Rain = 0
KLE1 090910Z 31006KT M05/M09 A3033 RMK A01 T10451087  RH  072%=      5-min Rain = 0
KLE1 090911Z 31006KT M05/M09 A3033 RMK A01 T10451088  RH  072%=      5-min Rain = 0
KLE1 090912Z 32005KT M05/M09 A3033 RMK A01 T10451088  RH  072%=      5-min Rain = 0
KLE1 090913Z 32005KT M04/M09 A3033 RMK A01 T10441087  RH  072%=      5-min Rain = 0
KLE1 090914Z 32005KT M04/M09 A3033 RMK A01 T10441088  RH  072%=      5-min Rain = 0
KLE1 090915Z 32005KT M04/M09 A3033 RMK A01 T10441088  RH  072%=      5-min Rain = 0
KLE1 090916Z 32005KT M04/M09 A3033 RMK A01 T10441088  RH  072%=      5-min Rain = 0
KLE1 090917Z 32006KT M04/M09 A3033 RMK A01 T10441088  RH  072%=      5-min Rain = 0
KLE1 090918Z 32005KT M05/M09 A3033 RMK A01 T10451088  RH  071%=      5-min Rain = 0
KLE1 090919Z 32005KT M04/M09 A3033 RMK A01 T10441089  RH  071%=      5-min Rain = 0
KLE1 090920Z 32005KT M04/M09 A3033 RMK A01 T10441089  RH  071%=      5-min Rain = 0
KLE1 090921Z 31004KT M04/M09 A3033 RMK A01 T10431089  RH  071%=      5-min Rain = 0
KLE1 090922Z 30004KT M04/M09 A3033 RMK A01 T10431088  RH  071%=      5-min Rain = 0
KLE1 090923Z 30004KT M04/M09 A3033 RMK A01 T10441088  RH  071%=      5-min Rain = 0
KLE1 090924Z 30003KT M05/M09 A3033 RMK A01 T10451088  RH  072%=      5-min Rain = 0
KLE1 090925Z 29003KT M05/M09 A3033 RMK A01 T10461088  RH  072%=      5-min Rain = 0
KLE1 090926Z 30004KT M05/M09 A3033 RMK A01 T10471088  RH  073%=      5-min Rain = 0
KLE1 090927Z 31005KT M05/M09 A3033 RMK A01 T10471088  RH  073%=      5-min Rain = 0
KLE1 090928Z 32005KT M05/M09 A3033 RMK A01 T10471088  RH  073%=      5-min Rain = 0
KLE1 090929Z 32005KT M05/M09 A3033 RMK A01 T10461088  RH  072%=      5-min Rain = 0
KLE1 090930Z 31005KT M05/M09 A3033 RMK A01 T10451088  RH  072%=      5-min Rain = 0
KLE1 090931Z 31004KT M05/M09 A3033 RMK A01 T10451088  RH  072%=      5-min Rain = 0
KLE1 090932Z 32005KT M04/M09 A3033 RMK A01 T10441088  RH  072%=      5-min Rain = 0
KLE1 090933Z 32005KT M05/M09 A3033 RMK A01 T10451088  RH  072%=      5-min Rain = 0
KLE1 090934Z 32005KT M05/M09 A3033 RMK A01 T10451088  RH  072%=      5-min Rain = 0
KLE1 090935Z 33005KT M04/M09 A3033 RMK A01 T10441088  RH  071%=      5-min Rain = 0
KLE1 090936Z 33005KT M04/M09 A3033 RMK A01 T10441088  RH  071%=      5-min Rain = 0
KLE1 090937Z 33006KT M04/M09 A3033 RMK A01 T10441088  RH  071%=      5-min Rain = 0
KLE1 090938Z 33005KT M04/M09 A3033 RMK A01 T10441088  RH  071%=      5-min Rain = 0
KLE1 090939Z 33005KT M04/M09 A3033 RMK A01 T10431088  RH  071%=      5-min Rain = 0
KLE1 090940Z 33005KT M04/M09 A3033 RMK A01 T10431088  RH  070%=      5-min Rain = 0
KLE1 090941Z 33005KT M04/M09 A3033 RMK A01 T10421088  RH  070%=      5-min Rain = 0
KLE1 090942Z 32005KT M04/M09 A3033 RMK A01 T10421089  RH  070%=      5-min Rain = 0
KLE1 090943Z 32004KT M04/M09 A3033 RMK A01 T10421088  RH  070%=      5-min Rain = 0
KLE1 090944Z 32005KT M04/M09 A3033 RMK A01 T10431089  RH  070%=      5-min Rain = 0
KLE1 090945Z 32005KT M04/M09 A3033 RMK A01 T10431088  RH  071%=      5-min Rain = 0
KLE1 090946Z 32005KT M04/M09 A3033 RMK A01 T10421088  RH  071%=      5-min Rain = 0
KLE1 090947Z 32005KT M04/M09 A3033 RMK A01 T10431087  RH  071%=      5-min Rain = 0
KLE1 090948Z 32006KT M04/M09 A3033 RMK A01 T10431087  RH  072%=      5-min Rain = 0
KLE1 090949Z 32005KT M04/M09 A3033 RMK A01 T10441087  RH  072%=      5-min Rain = 0
KLE1 090950Z 32005KT M04/M09 A3033 RMK A01 T10431087  RH  072%=      5-min Rain = 0
KLE1 090951Z 32005KT M04/M09 A3033 RMK A01 T10431087  RH  072%=      5-min Rain = 0
KLE1 090952Z 32005KT M04/M09 A3033 RMK A01 T10431087  RH  071%=      5-min Rain = 0
KLE1 090953Z 33005KT M04/M09 A3033 RMK A01 T10421087  RH  071%=      5-min Rain = 0
KLE1 090954Z 33005KT M04/M09 A3033 RMK A01 T10421087  RH  071%=      5-min Rain = 0
KLE1 090955Z 32005KT M04/M09 A3033 RMK A01 T10411087  RH  070%=      5-min Rain = 0
KLE1 090956Z 32005KT M04/M09 A3033 RMK A01 T10411088  RH  070%=      5-min Rain = 0
KLE1 090957Z 32005KT M04/M09 A3033 RMK A01 T10391088  RH  069%=      5-min Rain = 0
KLE1 090958Z 32004KT M04/M09 A3033 RMK A01 T10381087  RH  069%=      5-min Rain = 0
KLE1 090959Z 32004KT M04/M09 A3033 RMK A01 T10391087  RH  069%=      5-min Rain = 0
KLE1 091000Z 32005KT M04/M09 A3033 RMK A01 T10391087  RH  069%=      5-min Rain = 0
KLE1 091001Z 32005KT M04/M09 A3033 RMK A01 T10401087  RH  070%=      5-min Rain = 0
KLE1 091002Z 32005KT M04/M09 A3033 RMK A01 T10421088  RH  071%=      5-min Rain = 0
KLE1 091003Z 32005KT M04/M09 A3033 RMK A01 T10441088  RH  072%=      5-min Rain = 0
KLE1 091004Z 32004KT M05/M09 A3033 RMK A01 T10461088  RH  073%=      5-min Rain = 0
KLE1 091005Z 31004KT M05/M09 A3033 RMK A01 T10471087  RH  074%=      5-min Rain = 0
KLE1 091006Z 32004KT M05/M09 A3034 RMK A01 T10481087  RH  074%=      5-min Rain = 0
KLE1 091007Z 32004KT M05/M09 A3034 RMK A01 T10471086  RH  074%=      5-min Rain = 0
KLE1 091008Z 31005KT M05/M09 A3034 RMK A01 T10471087  RH  074%=      5-min Rain = 0
KLE1 091009Z 32004KT M05/M09 A3034 RMK A01 T10451086  RH  073%=      5-min Rain = 0
KLE1 091010Z 32004KT M04/M09 A3034 RMK A01 T10441086  RH  073%=      5-min Rain = 0
KLE1 091011Z 31003KT M04/M09 A3033 RMK A01 T10441086  RH  072%=      5-min Rain = 0
KLE1 091012Z 32003KT M04/M09 A3033 RMK A01 T10441087  RH  072%=      5-min Rain = 0
KLE1 091013Z 31004KT M05/M09 A3033 RMK A01 T10451087  RH  072%=      5-min Rain = 0
KLE1 091014Z 31004KT M05/M09 A3033 RMK A01 T10451087  RH  073%=      5-min Rain = 0
KLE1 091015Z 31003KT M05/M09 A3033 RMK A01 T10461087  RH  073%=      5-min Rain = 0
KLE1 091016Z 31003KT M05/M09 A3033 RMK A01 T10471088  RH  073%=      5-min Rain = 0
KLE1 091017Z 31003KT M05/M09 A3033 RMK A01 T10471087  RH  073%=      5-min Rain = 0
KLE1 091018Z 32003KT M05/M09 A3033 RMK A01 T10461087  RH  073%=      5-min Rain = 0
KLE1 091019Z 32004KT M05/M09 A3033 RMK A01 T10471088  RH  073%=      5-min Rain = 0
KLE1 091020Z 31004KT M05/M09 A3033 RMK A01 T10461088  RH  072%=      5-min Rain = 0
KLE1 091021Z 31004KT M05/M09 A3033 RMK A01 T10451089  RH  072%=      5-min Rain = 0
KLE1 091022Z 31004KT M05/M09 A3033 RMK A01 T10451088  RH  072%=      5-min Rain = 0
KLE1 091023Z 31004KT M04/M09 A3033 RMK A01 T10441088  RH  071%=      5-min Rain = 0
KLE1 091024Z 31004KT M05/M09 A3033 RMK A01 T10451088  RH  072%=      5-min Rain = 0
KLE1 091025Z 32004KT M05/M09 A3033 RMK A01 T10471088  RH  073%=      5-min Rain = 0
KLE1 091026Z 32004KT M05/M09 A3033 RMK A01 T10481088  RH  073%=      5-min Rain = 0
KLE1 091027Z 32004KT M05/M09 A3033 RMK A01 T10491088  RH  074%=      5-min Rain = 0
KLE1 091028Z 32003KT M05/M09 A3033 RMK A01 T10491087  RH  074%=      5-min Rain = 0
KLE1 091029Z 33003KT M05/M09 A3033 RMK A01 T10491087  RH  075%=      5-min Rain = 0
KLE1 091030Z 33003KT M05/M09 A3033 RMK A01 T10491087  RH  075%=      5-min Rain = 0
KLE1 091031Z 34003KT M05/M09 A3033 RMK A01 T10491087  RH  075%=      5-min Rain = 0
KLE1 091032Z 33003KT M05/M09 A3033 RMK A01 T10491087  RH  075%=      5-min Rain = 0
KLE1 091033Z 33002KT M05/M09 A3033 RMK A01 T10491087  RH  075%=      5-min Rain = 0
KLE1 091034Z 31002KT M05/M09 A3033 RMK A01 T10491087  RH  075%=      5-min Rain = 0
KLE1 091035Z 30002KT M05/M09 A3033 RMK A01 T10491087  RH  075%=      5-min Rain = 0
KLE1 091036Z 29003KT M05/M09 A3033 RMK A01 T10501087  RH  075%=      5-min Rain = 0
KLE1 091037Z 30003KT M05/M09 A3033 RMK A01 T10511087  RH  076%=      5-min Rain = 0
KLE1 091038Z 31003KT M05/M09 A3033 RMK A01 T10521087  RH  076%=      5-min Rain = 0
KLE1 091039Z 30003KT M05/M09 A3033 RMK A01 T10521087  RH  077%=      5-min Rain = 0
KLE1 091040Z 29003KT M05/M09 A3033 RMK A01 T10521087  RH  077%=      5-min Rain = 0
KLE1 091041Z 31003KT M05/M09 A3033 RMK A01 T10531088  RH  076%=      5-min Rain = 0
KLE1 091042Z 30003KT M05/M09 A3033 RMK A01 T10531088  RH  077%=      5-min Rain = 0
KLE1 091043Z 29003KT M05/M09 A3033 RMK A01 T10541087  RH  077%=      5-min Rain = 0
KLE1 091044Z 29004KT M05/M09 A3033 RMK A01 T10541086  RH  078%=      5-min Rain = 0
KLE1 091045Z 29004KT M06/M09 A3033 RMK A01 T10561086  RH  079%=      5-min Rain = 0
KLE1 091046Z 29004KT M06/M09 A3033 RMK A01 T10571085  RH  081%=      5-min Rain = 0
KLE1 091047Z 30004KT M06/M09 A3033 RMK A01 T10581085  RH  081%=      5-min Rain = 0
KLE1 091048Z 29005KT M06/M08 A3033 RMK A01 T10581084  RH  082%=      5-min Rain = 0
KLE1 091049Z 29005KT M06/M08 A3033 RMK A01 T10591084  RH  083%=      5-min Rain = 0
KLE1 091050Z 28005KT M06/M08 A3033 RMK A01 T10601084  RH  083%=      5-min Rain = 0
KLE1 091051Z 29005KT M06/M08 A3033 RMK A01 T10601084  RH  083%=      5-min Rain = 0
KLE1 091052Z 29005KT M06/M08 A3033 RMK A01 T10601084  RH  083%=      5-min Rain = 0
KLE1 091053Z 29005KT M06/M08 A3033 RMK A01 T10601084  RH  083%=      5-min Rain = 0
KLE1 091054Z 29005KT M06/M08 A3033 RMK A01 T10601084  RH  083%=      5-min Rain = 0
KLE1 091055Z 28005KT M06/M08 A3033 RMK A01 T10601084  RH  083%=      5-min Rain = 0
KLE1 091056Z 29005KT M06/M08 A3033 RMK A01 T10601084  RH  084%=      5-min Rain = 0
KLE1 091057Z 28005KT M06/M08 A3033 RMK A01 T10601083  RH  084%=      5-min Rain = 0
KLE1 091058Z 28005KT M06/M08 A3033 RMK A01 T10601083  RH  084%=      5-min Rain = 0
KLE1 091059Z 28005KT M06/M08 A3033 RMK A01 T10601083  RH  084%=      5-min Rain = 0
KLE1 091100Z 28005KT M06/M08 A3033 RMK A01 T10611083  RH  084%=      5-min Rain = 0
KLE1 091101Z 27005KT M06/M08 A3033 RMK A01 T10611084  RH  084%=      5-min Rain = 0
KLE1 091102Z 27005KT M06/M08 A3033 RMK A01 T10611084  RH  084%=      5-min Rain = 0
KLE1 091103Z 28005KT M06/M08 A3033 RMK A01 T10611083  RH  084%=      5-min Rain = 0
KLE1 091104Z 28005KT M06/M08 A3033 RMK A01 T10621083  RH  085%=      5-min Rain = 0
KLE1 091105Z 29005KT M06/M08 A3033 RMK A01 T10621083  RH  085%=      5-min Rain = 0
KLE1 091106Z 29006KT M06/M08 A3033 RMK A01 T10611083  RH  085%=      5-min Rain = 0
KLE1 091107Z 29006KT M06/M08 A3033 RMK A01 T10611083  RH  084%=      5-min Rain = 0
KLE1 091108Z 29006KT M06/M08 A3033 RMK A01 T10601083  RH  084%=      5-min Rain = 0
KLE1 091109Z 29005KT M06/M08 A3033 RMK A01 T10601084  RH  083%=      5-min Rain = 0
KLE1 091110Z 28005KT M06/M08 A3033 RMK A01 T10591084  RH  083%=      5-min Rain = 0
KLE1 091111Z 28005KT M06/M08 A3033 RMK A01 T10591084  RH  083%=      5-min Rain = 0
KLE1 091112Z 28005KT M06/M08 A3033 RMK A01 T10591084  RH  082%=      5-min Rain = 0
KLE1 091113Z 28005KT M06/M08 A3033 RMK A01 T10591083  RH  083%=      5-min Rain = 0
KLE1 091114Z 27004KT M06/M08 A3033 RMK A01 T10591084  RH  083%=      5-min Rain = 0
KLE1 091115Z 27005KT M06/M08 A3033 RMK A01 T10601083  RH  083%=      5-min Rain = 0
KLE1 091116Z 27005KT M06/M08 A3033 RMK A01 T10601083  RH  084%=      5-min Rain = 0
KLE1 091117Z 28005KT M06/M08 A3033 RMK A01 T10611083  RH  084%=      5-min Rain = 0
KLE1 091118Z 28005KT M06/M08 A3033 RMK A01 T10601082  RH  085%=      5-min Rain = 0
KLE1 091119Z 28005KT M06/M08 A3033 RMK A01 T10601082  RH  085%=      5-min Rain = 0
KLE1 091120Z 28005KT M06/M08 A3033 RMK A01 T10591081  RH  085%=      5-min Rain = 0
KLE1 091121Z 28005KT M06/M08 A3033 RMK A01 T10591081  RH  084%=      5-min Rain = 0
KLE1 091122Z 28005KT M06/M08 A3033 RMK A01 T10591081  RH  084%=      5-min Rain = 0
KLE1 091123Z 28005KT M06/M08 A3033 RMK A01 T10581082  RH  083%=      5-min Rain = 0
KLE1 091124Z 28005KT M06/M08 A3033 RMK A01 T10571082  RH  083%=      5-min Rain = 0
KLE1 091125Z 28006KT M06/M08 A3033 RMK A01 T10571082  RH  082%=      5-min Rain = 0
KLE1 091126Z 28006KT M06/M08 A3033 RMK A01 T10561082  RH  082%=      5-min Rain = 0
KLE1 091127Z 29006KT M06/M08 A3033 RMK A01 T10561083  RH  081%=      5-min Rain = 0
KLE1 091128Z 27004KT M06/M08 A3033 RMK A01 T10561083  RH  081%=      5-min Rain = 0
KLE1 091129Z 27004KT M06/M08 A3033 RMK A01 T10561083  RH  081%=      5-min Rain = 0
KLE1 091130Z 27004KT M06/M08 A3033 RMK A01 T10561082  RH  082%=      5-min Rain = 0
KLE1 091131Z 26005KT M06/M08 A3033 RMK A01 T10571082  RH  083%=      5-min Rain = 0
KLE1 091132Z 27005KT M06/M08 A3034 RMK A01 T10581082  RH  083%=      5-min Rain = 0
KLE1 091133Z 27005KT M06/M08 A3034 RMK A01 T10591082  RH  084%=      5-min Rain = 0
KLE1 091134Z 27005KT M06/M08 A3034 RMK A01 T10591082  RH  084%=      5-min Rain = 0
KLE1 091135Z 27005KT M06/M08 A3034 RMK A01 T10591081  RH  084%=      5-min Rain = 0
KLE1 091136Z 27005KT M06/M08 A3034 RMK A01 T10591081  RH  085%=      5-min Rain = 0
KLE1 091137Z 27005KT M06/M08 A3034 RMK A01 T10601081  RH  085%=      5-min Rain = 0
KLE1 091138Z 27004KT M06/M08 A3034 RMK A01 T10601081  RH  085%=      5-min Rain = 0
KLE1 091139Z 27004KT M06/M08 A3034 RMK A01 T10601081  RH  085%=      5-min Rain = 0
KLE1 091140Z 27004KT M06/M08 A3034 RMK A01 T10601081  RH  085%=      5-min Rain = 0
KLE1 091141Z 27004KT M06/M08 A3034 RMK A01 T10601081  RH  085%=      5-min Rain = 0
KLE1 091142Z 27005KT M06/M08 A3034 RMK A01 T10601081  RH  085%=      5-min Rain = 0
KLE1 091143Z 27005KT M06/M08 A3034 RMK A01 T10601080  RH  086%=      5-min Rain = 0
KLE1 091144Z 27005KT M06/M08 A3034 RMK A01 T10601080  RH  086%=      5-min Rain = 0
KLE1 091145Z 27005KT M06/M08 A3034 RMK A01 T10601080  RH  086%=      5-min Rain = 0
KLE1 091146Z 27005KT M06/M08 A3034 RMK A01 T10611080  RH  086%=      5-min Rain = 0
KLE1 091147Z 27005KT M06/M08 A3034 RMK A01 T10601079  RH  086%=      5-min Rain = 0
KLE1 091148Z 27005KT M06/M08 A3034 RMK A01 T10601079  RH  086%=      5-min Rain = 0
KLE1 091149Z 27004KT M06/M08 A3034 RMK A01 T10611079  RH  087%=      5-min Rain = 0
KLE1 091150Z 28004KT M06/M08 A3034 RMK A01 T10601079  RH  087%=      5-min Rain = 0
KLE1 091151Z 28004KT M06/M08 A3034 RMK A01 T10601079  RH  087%=      5-min Rain = 0
KLE1 091152Z 28004KT M06/M08 A3034 RMK A01 T10601078  RH  087%=      5-min Rain = 0
KLE1 091153Z 28004KT M06/M08 A3034 RMK A01 T10601079  RH  087%=      5-min Rain = 0
KLE1 091154Z 28004KT M06/M08 A3034 RMK A01 T10601078  RH  087%=      5-min Rain = 0
KLE1 091155Z 28004KT M06/M08 A3034 RMK A01 T10601078  RH  087%=      5-min Rain = 0
KLE1 091156Z 28004KT M06/M08 A3034 RMK A01 T10601078  RH  087%=      5-min Rain = 0
KLE1 091157Z 27004KT M06/M08 A3034 RMK A01 T10601078  RH  087%=      5-min Rain = 0
KLE1 091158Z 27005KT M06/M08 A3034 RMK A01 T10601078  RH  087%=      5-min Rain = 0
KLE1 091159Z 27004KT M06/M08 A3034 RMK A01 T10601078  RH  087%=      5-min Rain = 0
KLE1 091200Z 27005KT M06/M08 A3034 RMK A01 T10601078  RH  087%=      5-min Rain = 0
KLE1 091201Z 27005KT M06/M08 A3034 RMK A01 T10601078  RH  087%=      5-min Rain = 0
KLE1 091202Z 27005KT M06/M08 A3034 RMK A01 T10601079  RH  087%=      5-min Rain = 0
KLE1 091203Z 27004KT M06/M08 A3034 RMK A01 T10601079  RH  087%=      5-min Rain = 0
KLE1 091204Z 27004KT M06/M08 A3034 RMK A01 T10601078  RH  087%=      5-min Rain = 0
KLE1 091205Z 27004KT M06/M08 A3034 RMK A01 T10601078  RH  087%=      5-min Rain = 0
KLE1 091206Z 26004KT M06/M08 A3034 RMK A01 T10601078  RH  087%=      5-min Rain = 0
KLE1 091207Z 26004KT M06/M08 A3034 RMK A01 T10601078  RH  087%=      5-min Rain = 0
KLE1 091208Z 26005KT M06/M08 A3034 RMK A01 T10611078  RH  087%=      5-min Rain = 0
KLE1 091209Z 26005KT M06/M08 A3034 RMK A01 T10611078  RH  088%=      5-min Rain = 0
KLE1 091210Z 26005KT M06/M08 A3034 RMK A01 T10611078  RH  088%=      5-min Rain = 0
KLE1 091211Z 26004KT M06/M08 A3034 RMK A01 T10611078  RH  088%=      5-min Rain = 0
KLE1 091212Z 26004KT M06/M08 A3034 RMK A01 T10611078  RH  088%=      5-min Rain = 0
KLE1 091213Z 26004KT M06/M08 A3034 RMK A01 T10611077  RH  088%=      5-min Rain = 0
KLE1 091214Z 26004KT M06/M08 A3034 RMK A01 T10611077  RH  088%=      5-min Rain = 0
KLE1 091215Z 26004KT M06/M08 A3034 RMK A01 T10611077  RH  088%=      5-min Rain = 0
KLE1 091216Z 26005KT M06/M08 A3034 RMK A01 T10611077  RH  088%=      5-min Rain = 0
KLE1 091217Z 26005KT M06/M08 A3034 RMK A01 T10601077  RH  088%=      5-min Rain = 0
KLE1 091218Z 27004KT M06/M08 A3034 RMK A01 T10601077  RH  088%=      5-min Rain = 0
KLE1 091219Z 27004KT M06/M08 A3034 RMK A01 T10601076  RH  088%=      5-min Rain = 0
KLE1 091220Z 27004KT M06/M08 A3034 RMK A01 T10601077  RH  088%=      5-min Rain = 0
KLE1 091221Z 27004KT M06/M08 A3034 RMK A01 T10611077  RH  088%=      5-min Rain = 0
KLE1 091222Z 27004KT M06/M08 A3035 RMK A01 T10601077  RH  088%=      5-min Rain = 0
KLE1 091223Z 27004KT M06/M08 A3035 RMK A01 T10601076  RH  088%=      5-min Rain = 0
KLE1 091224Z 27005KT M06/M08 A3035 RMK A01 T10601077  RH  088%=      5-min Rain = 0
KLE1 091225Z 27005KT M06/M08 A3035 RMK A01 T10601077  RH  088%=      5-min Rain = 0
KLE1 091226Z 27005KT M06/M08 A3035 RMK A01 T10601077  RH  088%=      5-min Rain = 0
KLE1 091227Z 27005KT M06/M08 A3035 RMK A01 T10601076  RH  088%=      5-min Rain = 0
KLE1 091228Z 27005KT M06/M08 A3035 RMK A01 T10601077  RH  088%=      5-min Rain = 0
KLE1 091229Z 27005KT M06/M08 A3035 RMK A01 T10601076  RH  088%=      5-min Rain = 0
KLE1 091230Z 28005KT M06/M08 A3035 RMK A01 T10601076  RH  088%=      5-min Rain = 0
KLE1 091231Z 27005KT M06/M08 A3035 RMK A01 T10601076  RH  088%=      5-min Rain = 0
KLE1 091232Z 27005KT M06/M08 A3035 RMK A01 T10601076  RH  088%=      5-min Rain = 0
KLE1 091233Z 28005KT M06/M08 A3035 RMK A01 T10601076  RH  088%=      5-min Rain = 0
KLE1 091234Z 28005KT M06/M08 A3035 RMK A01 T10601076  RH  088%=      5-min Rain = 0
KLE1 091235Z 27006KT M06/M08 A3035 RMK A01 T10601077  RH  088%=      5-min Rain = 0
KLE1 091236Z 27005KT M06/M08 A3035 RMK A01 T10601077  RH  088%=      5-min Rain = 0
KLE1 091237Z 27005KT M06/M08 A3035 RMK A01 T10601077  RH  088%=      5-min Rain = 0
KLE1 091238Z 27005KT M06/M08 A3035 RMK A01 T10601076  RH  088%=      5-min Rain = 0
KLE1 091239Z 28006KT M06/M08 A3035 RMK A01 T10601076  RH  088%=      5-min Rain = 0
KLE1 091240Z 28006KT M06/M08 A3035 RMK A01 T10601076  RH  088%=      5-min Rain = 0
KLE1 091241Z 28006KT M06/M08 A3035 RMK A01 T10601076  RH  088%=      5-min Rain = 0
KLE1 091242Z 28006KT M06/M08 A3035 RMK A01 T10601077  RH  088%=      5-min Rain = 0
KLE1 091243Z 28006KT M06/M08 A3035 RMK A01 T10591077  RH  087%=      5-min Rain = 0
KLE1 091244Z 28006KT M06/M08 A3035 RMK A01 T10591077  RH  087%=      5-min Rain = 0
KLE1 091245Z 28006KT M06/M08 A3035 RMK A01 T10581077  RH  087%=      5-min Rain = 0
KLE1 091246Z 28005KT M06/M08 A3035 RMK A01 T10591078  RH  087%=      5-min Rain = 0
KLE1 091247Z 28006KT M06/M08 A3035 RMK A01 T10591078  RH  086%=      5-min Rain = 0
KLE1 091248Z 28006KT M06/M08 A3035 RMK A01 T10591078  RH  086%=      5-min Rain = 0
KLE1 091249Z 28006KT M06/M08 A3035 RMK A01 T10591078  RH  087%=      5-min Rain = 0
KLE1 091250Z 28006KT M06/M08 A3035 RMK A01 T10591078  RH  087%=      5-min Rain = 0
KLE1 091251Z 28006KT M06/M08 A3035 RMK A01 T10591078  RH  087%=      5-min Rain = 0
KLE1 091252Z 28006KT M06/M08 A3035 RMK A01 T10591078  RH  086%=      5-min Rain = 0
KLE1 091253Z 28006KT M06/M08 A3035 RMK A01 T10581078  RH  086%=      5-min Rain = 0
KLE1 091254Z 28006KT M06/M08 A3035 RMK A01 T10581077  RH  086%=      5-min Rain = 0
KLE1 091255Z 28006KT M06/M08 A3035 RMK A01 T10581078  RH  086%=      5-min Rain = 0
KLE1 091256Z 28006KT M06/M08 A3035 RMK A01 T10581078  RH  086%=      5-min Rain = 0
KLE1 091257Z 28006KT M06/M08 A3035 RMK A01 T10581077  RH  086%=      5-min Rain = 0
KLE1 091258Z 28006KT M06/M08 A3035 RMK A01 T10591078  RH  087%=      5-min Rain = 0
KLE1 091259Z 28005KT M06/M08 A3035 RMK A01 T10591078  RH  087%=      5-min Rain = 0
KLE1 091300Z 28006KT M06/M08 A3035 RMK A01 T10591077  RH  087%=      5-min Rain = 0
KLE1 091301Z 28006KT M06/M08 A3035 RMK A01 T10591077  RH  087%=      5-min Rain = 0
KLE1 091302Z 28006KT M06/M08 A3035 RMK A01 T10601077  RH  087%=      5-min Rain = 0
KLE1 091303Z 28006KT M06/M08 A3036 RMK A01 T10601077  RH  088%=      5-min Rain = 0
KLE1 091304Z 28006KT M06/M08 A3036 RMK A01 T10591077  RH  088%=      5-min Rain = 0
KLE1 091305Z 28006KT M06/M08 A3036 RMK A01 T10591077  RH  087%=      5-min Rain = 0
KLE1 091306Z 28006KT M06/M08 A3036 RMK A01 T10591077  RH  087%=      5-min Rain = 0
KLE1 091307Z 28006KT M06/M08 A3036 RMK A01 T10591077  RH  087%=      5-min Rain = 0
KLE1 091308Z 28007KT M06/M08 A3036 RMK A01 T10591077  RH  087%=      5-min Rain = 0
KLE1 091309Z 28007KT M06/M08 A3036 RMK A01 T10591077  RH  087%=      5-min Rain = 0
KLE1 091310Z 28007KT M06/M08 A3036 RMK A01 T10591077  RH  087%=      5-min Rain = 0
KLE1 091311Z 28007KT M06/M08 A3036 RMK A01 T10591078  RH  087%=      5-min Rain = 0
KLE1 091312Z 28007KT M06/M08 A3036 RMK A01 T10581077  RH  086%=      5-min Rain = 0
KLE1 091313Z 28006KT M06/M08 A3036 RMK A01 T10591078  RH  086%=      5-min Rain = 0
KLE1 091314Z 28006KT M06/M08 A3036 RMK A01 T10581078  RH  086%=      5-min Rain = 0
KLE1 091315Z 29006KT M06/M08 A3036 RMK A01 T10581078  RH  086%=      5-min Rain = 0
KLE1 091316Z 29006KT M06/M08 A3036 RMK A01 T10591078  RH  086%=      5-min Rain = 0
KLE1 091317Z 29006KT M06/M08 A3036 RMK A01 T10581078  RH  086%=      5-min Rain = 0
KLE1 091318Z 29006KT M06/M08 A3036 RMK A01 T10591079  RH  086%=      5-min Rain = 0
KLE1 091319Z 28006KT M06/M08 A3037 RMK A01 T10591079  RH  086%=      5-min Rain = 0
KLE1 091320Z 29006KT M06/M08 A3037 RMK A01 T10601079  RH  086%=      5-min Rain = 0
KLE1 091321Z 28006KT M06/M08 A3037 RMK A01 T10601079  RH  086%=      5-min Rain = 0
KLE1 091322Z 28006KT M06/M08 A3037 RMK A01 T10601080  RH  086%=      5-min Rain = 0
KLE1 091323Z 28006KT M06/M08 A3037 RMK A01 T10611080  RH  086%=      5-min Rain = 0
KLE1 091324Z 28006KT M06/M08 A3037 RMK A01 T10611080  RH  086%=      5-min Rain = 0
KLE1 091325Z 28006KT M06/M08 A3037 RMK A01 T10611080  RH  086%=      5-min Rain = 0
KLE1 091326Z 28005KT M06/M08 A3037 RMK A01 T10611080  RH  086%=      5-min Rain = 0
KLE1 091327Z 28006KT M06/M08 A3037 RMK A01 T10611080  RH  086%=      5-min Rain = 0
KLE1 091328Z 28005KT M06/M08 A3037 RMK A01 T10611080  RH  086%=      5-min Rain = 0
KLE1 091329Z 28006KT M06/M08 A3037 RMK A01 T10611080  RH  086%=      5-min Rain = 0
KLE1 091330Z 28005KT M06/M08 A3037 RMK A01 T10611080  RH  086%=      5-min Rain = 0
KLE1 091331Z 28005KT M06/M08 A3037 RMK A01 T10601080  RH  086%=      5-min Rain = 0
KLE1 091332Z 28006KT M06/M08 A3037 RMK A01 T10601080  RH  086%=      5-min Rain = 0
KLE1 091333Z 28006KT M06/M08 A3037 RMK A01 T10601080  RH  086%=      5-min Rain = 0
KLE1 091334Z 28006KT M06/M08 A3037 RMK A01 T10601080  RH  086%=      5-min Rain = 0
KLE1 091335Z 28006KT M06/M08 A3037 RMK A01 T10601079  RH  086%=      5-min Rain = 0
KLE1 091336Z 28006KT M06/M08 A3037 RMK A01 T10601079  RH  086%=      5-min Rain = 0
KLE1 091337Z 28006KT M06/M08 A3037 RMK A01 T10601079  RH  087%=      5-min Rain = 0
KLE1 091338Z 28006KT M06/M08 A3037 RMK A01 T10601079  RH  087%=      5-min Rain = 0
KLE1 091339Z 28006KT M06/M08 A3037 RMK A01 T10601079  RH  086%=      5-min Rain = 0
KLE1 091340Z 28006KT M06/M08 A3037 RMK A01 T10591078  RH  086%=      5-min Rain = 0
KLE1 091341Z 28007KT M06/M08 A3037 RMK A01 T10591079  RH  086%=      5-min Rain = 0
KLE1 091342Z 28007KT M06/M08 A3037 RMK A01 T10591079  RH  086%=      5-min Rain = 0
KLE1 091343Z 28007KT M06/M08 A3037 RMK A01 T10591079  RH  086%=      5-min Rain = 0
KLE1 091344Z 28006KT M06/M08 A3037 RMK A01 T10581079  RH  086%=      5-min Rain = 0
KLE1 091345Z 28006KT M06/M08 A3037 RMK A01 T10581079  RH  085%=      5-min Rain = 0
KLE1 091346Z 28005KT M06/M08 A3037 RMK A01 T10581079  RH  085%=      5-min Rain = 0
KLE1 091347Z 28005KT M06/M08 A3037 RMK A01 T10581079  RH  085%=      5-min Rain = 0
KLE1 091348Z 28005KT M06/M08 A3037 RMK A01 T10581079  RH  085%=      5-min Rain = 0
KLE1 091349Z 29005KT M06/M08 A3037 RMK A01 T10581078  RH  085%=      5-min Rain = 0
KLE1 091350Z 28005KT M06/M08 A3037 RMK A01 T10581079  RH  085%=      5-min Rain = 0
KLE1 091351Z 28005KT M06/M08 A3037 RMK A01 T10581079  RH  085%=      5-min Rain = 0
KLE1 091352Z 28005KT M06/M08 A3037 RMK A01 T10581079  RH  085%=      5-min Rain = 0
KLE1 091353Z 28005KT M06/M08 A3037 RMK A01 T10581078  RH  086%=      5-min Rain = 0
KLE1 091354Z 28005KT M06/M08 A3037 RMK A01 T10581078  RH  086%=      5-min Rain = 0
KLE1 091355Z 28005KT M06/M08 A3037 RMK A01 T10581078  RH  086%=      5-min Rain = 0
KLE1 091356Z 28005KT M06/M08 A3037 RMK A01 T10581078  RH  086%=      5-min Rain = 0
KLE1 091357Z 28005KT M06/M08 A3037 RMK A01 T10581079  RH  086%=      5-min Rain = 0
KLE1 091358Z 28005KT M06/M08 A3037 RMK A01 T10581078  RH  086%=      5-min Rain = 0
KLE1 091359Z 29005KT M06/M08 A3037 RMK A01 T10581079  RH  085%=      5-min Rain = 0
KLE1 091400Z 29005KT M06/M08 A3037 RMK A01 T10571078  RH  085%=      5-min Rain = 0
KLE1 091401Z 28005KT M06/M08 A3037 RMK A01 T10571078  RH  085%=      5-min Rain = 0
KLE1 091402Z 28005KT M06/M08 A3037 RMK A01 T10571079  RH  085%=      5-min Rain = 0
KLE1 091403Z 29005KT M06/M08 A3037 RMK A01 T10571078  RH  085%=      5-min Rain = 0
KLE1 091404Z 28005KT M06/M08 A3038 RMK A01 T10561078  RH  085%=      5-min Rain = 0
KLE1 091405Z 28005KT M06/M08 A3038 RMK A01 T10561078  RH  085%=      5-min Rain = 0
KLE1 091406Z 28005KT M06/M08 A3038 RMK A01 T10561078  RH  085%=      5-min Rain = 0
KLE1 091407Z 28005KT M06/M08 A3038 RMK A01 T10561078  RH  085%=      5-min Rain = 0
KLE1 091408Z 28005KT M06/M08 A3038 RMK A01 T10561077  RH  085%=      5-min Rain = 0
KLE1 091409Z 29005KT M06/M08 A3038 RMK A01 T10551077  RH  085%=      5-min Rain = 0
KLE1 091410Z 29005KT M06/M08 A3037 RMK A01 T10551076  RH  085%=      5-min Rain = 0
KLE1 091411Z 29004KT M05/M08 A3037 RMK A01 T10541076  RH  085%=      5-min Rain = 0
KLE1 091412Z 28004KT M05/M08 A3037 RMK A01 T10541076  RH  084%=      5-min Rain = 0
KLE1 091413Z 28004KT M05/M08 A3037 RMK A01 T10531076  RH  084%=      5-min Rain = 0
KLE1 091414Z 28004KT M05/M08 A3037 RMK A01 T10531076  RH  084%=      5-min Rain = 0
KLE1 091415Z 28004KT M05/M08 A3037 RMK A01 T10531076  RH  084%=      5-min Rain = 0
KLE1 091416Z 28004KT M05/M08 A3037 RMK A01 T10541076  RH  085%=      5-min Rain = 0
KLE1 091417Z 29005KT M05/M08 A3038 RMK A01 T10541076  RH  084%=      5-min Rain = 0
KLE1 091418Z 28004KT M05/M08 A3038 RMK A01 T10541076  RH  084%=      5-min Rain = 0
KLE1 091419Z 28005KT M05/M08 A3038 RMK A01 T10531076  RH  084%=      5-min Rain = 0
KLE1 091420Z 28004KT M05/M08 A3038 RMK A01 T10531076  RH  084%=      5-min Rain = 0
KLE1 091421Z 28005KT M05/M08 A3038 RMK A01 T10541076  RH  084%=      5-min Rain = 0
KLE1 091422Z 28005KT M05/M08 A3038 RMK A01 T10541076  RH  084%=      5-min Rain = 0
KLE1 091423Z 28004KT M05/M08 A3038 RMK A01 T10541076  RH  085%=      5-min Rain = 0
KLE1 091424Z 28004KT M05/M08 A3038 RMK A01 T10541076  RH  085%=      5-min Rain = 0
KLE1 091425Z 28005KT M05/M08 A3038 RMK A01 T10541076  RH  085%=      5-min Rain = 0
KLE1 091426Z 28005KT M05/M08 A3038 RMK A01 T10531075  RH  085%=      5-min Rain = 0
KLE1 091427Z 28005KT M05/M08 A3038 RMK A01 T10531075  RH  085%=      5-min Rain = 0
KLE1 091428Z 28005KT M05/M08 A3038 RMK A01 T10531075  RH  084%=      5-min Rain = 0
KLE1 091429Z 29005KT M05/M08 A3038 RMK A01 T10531075  RH  084%=      5-min Rain = 0
KLE1 091430Z 28005KT M05/M08 A3038 RMK A01 T10531075  RH  085%=      5-min Rain = 0
KLE1 091431Z 28005KT M05/M07 A3038 RMK A01 T10531074  RH  085%=      5-min Rain = 0
KLE1 091432Z 28005KT M05/M07 A3038 RMK A01 T10521074  RH  085%=      5-min Rain = 0
KLE1 091433Z 28005KT M05/M07 A3038 RMK A01 T10521074  RH  085%=      5-min Rain = 0
KLE1 091434Z 28005KT M05/M07 A3038 RMK A01 T10521074  RH  085%=      5-min Rain = 0
KLE1 091435Z 29005KT M05/M07 A3038 RMK A01 T10521074  RH  085%=      5-min Rain = 0
KLE1 091436Z 28005KT M05/M07 A3038 RMK A01 T10521073  RH  085%=      5-min Rain = 0
KLE1 091437Z 29005KT M05/M07 A3038 RMK A01 T10521074  RH  085%=      5-min Rain = 0
KLE1 091438Z 29005KT M05/M07 A3038 RMK A01 T10521074  RH  085%=      5-min Rain = 0
KLE1 091439Z 28005KT M05/M07 A3038 RMK A01 T10531074  RH  085%=      5-min Rain = 0
KLE1 091440Z 28005KT M05/M07 A3038 RMK A01 T10531074  RH  085%=      5-min Rain = 0
KLE1 091441Z 28005KT M05/M07 A3039 RMK A01 T10521073  RH  085%=      5-min Rain = 0
KLE1 091442Z 28005KT M05/M07 A3039 RMK A01 T10521073  RH  085%=      5-min Rain = 0
KLE1 091443Z 28004KT M05/M07 A3039 RMK A01 T10521072  RH  085%=      5-min Rain = 0
KLE1 091444Z 28004KT M05/M07 A3039 RMK A01 T10511072  RH  085%=      5-min Rain = 0
KLE1 091445Z 28004KT M05/M07 A3039 RMK A01 T10501071  RH  085%=      5-min Rain = 0
KLE1 091446Z 29004KT M05/M07 A3039 RMK A01 T10481069  RH  085%=      5-min Rain = 0
KLE1 091447Z 29005KT M05/M07 A3039 RMK A01 T10471069  RH  085%=      5-min Rain = 0
KLE1 091448Z 29005KT M05/M07 A3039 RMK A01 T10461068  RH  085%=      5-min Rain = 0
KLE1 091449Z 28005KT M05/M07 A3039 RMK A01 T10451068  RH  084%=      5-min Rain = 0
KLE1 091450Z 28005KT M04/M07 A3039 RMK A01 T10441068  RH  083%=      5-min Rain = 0
KLE1 091451Z 28005KT M04/M07 A3039 RMK A01 T10431068  RH  083%=      5-min Rain = 0
KLE1 091452Z 28005KT M04/M07 A3039 RMK A01 T10431069  RH  082%=      5-min Rain = 0
KLE1 091453Z 28006KT M04/M07 A3039 RMK A01 T10431069  RH  082%=      5-min Rain = 0
KLE1 091454Z 28006KT M04/M07 A3039 RMK A01 T10421068  RH  082%=      5-min Rain = 0
KLE1 091455Z 28006KT M04/M07 A3039 RMK A01 T10421068  RH  082%=      5-min Rain = 0
KLE1 091456Z 28006KT M04/M07 A3039 RMK A01 T10411066  RH  083%=      5-min Rain = 0
KLE1 091457Z 28006KT M04/M07 A3039 RMK A01 T10401065  RH  083%=      5-min Rain = 0
KLE1 091458Z 28005KT M04/M06 A3039 RMK A01 T10401064  RH  083%=      5-min Rain = 0
KLE1 091459Z 29005KT M04/M06 A3039 RMK A01 T10391064  RH  083%=      5-min Rain = 0
KLE1 091500Z 28006KT M04/M06 A3039 RMK A01 T10381063  RH  083%=      5-min Rain = 0
KLE1 091501Z 29006KT M04/M07 A3039 RMK A01 T10381065  RH  082%=      5-min Rain = 0
KLE1 091502Z 29006KT M04/M06 A3039 RMK A01 T10361063  RH  082%=      5-min Rain = 0
KLE1 091503Z 28007KT M04/M06 A3039 RMK A01 T10351061  RH  082%=      5-min Rain = 0
KLE1 091504Z 28007KT M03/M06 A3039 RMK A01 T10341062  RH  081%=      5-min Rain = 0
KLE1 091505Z 28006KT M03/M07 A3039 RMK A01 T10341065  RH  079%=      5-min Rain = 0
KLE1 091506Z 28006KT M03/M07 A3039 RMK A01 T10341065  RH  079%=      5-min Rain = 0
KLE1 091507Z 28006KT M03/M07 A3039 RMK A01 T10331065  RH  079%=      5-min Rain = 0
KLE1 091508Z 28006KT M03/M06 A3039 RMK A01 T10331064  RH  079%=      5-min Rain = 0
KLE1 091509Z 28007KT M03/M06 A304 RMK A01 T10321062  RH  079%=      5-min Rain = 0
KLE1 091510Z 28006KT M03/M06 A304 RMK A01 T10311063  RH  079%=      5-min Rain = 0
KLE1 091511Z 28006KT M03/M06 A304 RMK A01 T10311062  RH  079%=      5-min Rain = 0
KLE1 091512Z 28006KT M03/M06 A304 RMK A01 T10301062  RH  079%=      5-min Rain = 0
KLE1 091513Z 28007KT M03/M06 A304 RMK A01 T10291060  RH  079%=      5-min Rain = 0
KLE1 091514Z 28006KT M03/M06 A304 RMK A01 T10281061  RH  078%=      5-min Rain = 0
KLE1 091515Z 28005KT M03/M06 A304 RMK A01 T10271060  RH  078%=      5-min Rain = 0
KLE1 091516Z 28005KT M03/M06 A304 RMK A01 T10261058  RH  078%=      5-min Rain = 0
KLE1 091517Z 28006KT M03/M06 A304 RMK A01 T10251060  RH  077%=      5-min Rain = 0
KLE1 091518Z 28006KT M02/M06 A304 RMK A01 T10241061  RH  076%=      5-min Rain = 0
KLE1 091519Z 28006KT M02/M06 A304 RMK A01 T10241063  RH  075%=      5-min Rain = 0
KLE1 091520Z 27006KT M02/M06 A304 RMK A01 T10231061  RH  075%=      5-min Rain = 0
KLE1 091521Z 27005KT M02/M06 A304 RMK A01 T10231063  RH  074%=      5-min Rain = 0
KLE1 091522Z 27006KT M02/M06 A304 RMK A01 T10221057  RH  077%=      5-min Rain = 0
KLE1 091523Z 27006KT M02/M06 A304 RMK A01 T10221058  RH  076%=      5-min Rain = 0
KLE1 091524Z 27006KT M02/M06 A304 RMK A01 T10221058  RH  076%=      5-min Rain = 0
KLE1 091525Z 27005KT M02/M06 A304 RMK A01 T10211055  RH  078%=      5-min Rain = 0
KLE1 091526Z 27006KT M02/M05 A304 RMK A01 T10201054  RH  078%=      5-min Rain = 0
KLE1 091527Z 27005KT M02/M06 A304 RMK A01 T10201056  RH  077%=      5-min Rain = 0
KLE1 091528Z 27006KT M02/M05 A304 RMK A01 T10191051  RH  079%=      5-min Rain = 0
KLE1 091529Z 27005KT M02/M05 A304 RMK A01 T10181051  RH  078%=      5-min Rain = 0
KLE1 091530Z 27005KT M02/M05 A304 RMK A01 T10171052  RH  077%=      5-min Rain = 0
KLE1 091531Z 27006KT M02/M06 A304 RMK A01 T10171055  RH  075%=      5-min Rain = 0
KLE1 091532Z 27006KT M02/M06 A304 RMK A01 T10171055  RH  075%=      5-min Rain = 0
KLE1 091533Z 27005KT M02/M05 A304 RMK A01 T10171054  RH  076%=      5-min Rain = 0
KLE1 091534Z 27006KT M02/M05 A304 RMK A01 T10151050  RH  077%=      5-min Rain = 0
KLE1 091535Z 27006KT M02/M05 A3041 RMK A01 T10151052  RH  076%=      5-min Rain = 0
KLE1 091536Z 27007KT M01/M05 A3041 RMK A01 T10141051  RH  076%=      5-min Rain = 0
KLE1 091537Z 27006KT M01/M05 A3041 RMK A01 T10141053  RH  075%=      5-min Rain = 0
KLE1 091538Z 27007KT M01/M05 A3041 RMK A01 T10141054  RH  074%=      5-min Rain = 0
KLE1 091539Z 28006KT M01/M05 A3041 RMK A01 T10141054  RH  074%=      5-min Rain = 0
KLE1 091540Z 28006KT M01/M06 A3041 RMK A01 T10131055  RH  073%=      5-min Rain = 0
KLE1 091541Z 28006KT M01/M05 A3041 RMK A01 T10121054  RH  073%=      5-min Rain = 0
KLE1 091542Z 27005KT M01/M05 A3041 RMK A01 T10111051  RH  074%=      5-min Rain = 0
KLE1 091543Z 27006KT M01/M05 A3041 RMK A01 T10101050  RH  074%=      5-min Rain = 0
KLE1 091544Z 28006KT M01/M05 A3041 RMK A01 T10101051  RH  074%=      5-min Rain = 0
KLE1 091545Z 29006KT M01/M05 A3041 RMK A01 T10091050  RH  074%=      5-min Rain = 0
KLE1 091546Z 28006KT M01/M05 A3041 RMK A01 T10081051  RH  072%=      5-min Rain = 0
KLE1 091547Z 28006KT M01/M05 A3041 RMK A01 T10071052  RH  072%=      5-min Rain = 0
KLE1 091548Z 28006KT M01/M05 A3041 RMK A01 T10071052  RH  072%=      5-min Rain = 0
KLE1 091549Z 28006KT M01/M05 A3041 RMK A01 T10061051  RH  072%=      5-min Rain = 0
KLE1 091550Z 28006KT M01/M06 A3041 RMK A01 T10061055  RH  069%=      5-min Rain = 0
KLE1 091551Z 28006KT M01/M06 A3041 RMK A01 T10061055  RH  070%=      5-min Rain = 0
KLE1 091552Z 28006KT M01/M05 A3041 RMK A01 T10061053  RH  071%=      5-min Rain = 0
KLE1 091553Z 28006KT M01/M05 A3041 RMK A01 T10051049  RH  072%=      5-min Rain = 0
KLE1 091554Z 28005KT M00/M05 A3041 RMK A01 T10031049  RH  072%=      5-min Rain = 0
KLE1 091555Z 27006KT M00/M05 A3041 RMK A01 T10031051  RH  070%=      5-min Rain = 0
KLE1 091556Z 29006KT M00/M05 A3041 RMK A01 T10021048  RH  071%=      5-min Rain = 0
KLE1 091557Z 28006KT M00/M05 A3041 RMK A01 T10021052  RH  069%=      5-min Rain = 0
KLE1 091558Z 27006KT M00/M05 A3041 RMK A01 T10021051  RH  070%=      5-min Rain = 0
KLE1 091559Z 27006KT M00/M05 A3041 RMK A01 T10021050  RH  070%=      5-min Rain = 0
KLE1 091600Z 28005KT M00/M05 A3041 RMK A01 T10021053  RH  069%=      5-min Rain = 0
KLE1 091601Z 28006KT M00/M05 A3041 RMK A01 T10021050  RH  070%=      5-min Rain = 0
KLE1 091602Z 27005KT 00/05 A3041 RMK A01 T00-00-49  RH  070%=      5-min Rain = 0
KLE1 091603Z 26005KT 00/05 A3041 RMK A01 T00000-50  RH  069%=      5-min Rain = 0
KLE1 091604Z 28005KT 00/M05 A3041 RMK A01 T00011048  RH  070%=      5-min Rain = 0
KLE1 091605Z 26006KT 00/M05 A3041 RMK A01 T00021046  RH  070%=      5-min Rain = 0
KLE1 091606Z 26005KT 00/M05 A3041 RMK A01 T00031049  RH  068%=      5-min Rain = 0
KLE1 091607Z 27004KT 00/M05 A3041 RMK A01 T00041047  RH  069%=      5-min Rain = 0
KLE1 091608Z 27005KT 01/M05 A3041 RMK A01 T00051045  RH  069%=      5-min Rain = 0
KLE1 091609Z 26005KT 01/M05 A3041 RMK A01 T00061047  RH  068%=      5-min Rain = 0
KLE1 091610Z 26005KT 01/M04 A3041 RMK A01 T00061044  RH  069%=      5-min Rain = 0
KLE1 091611Z 27004KT 01/M05 A3041 RMK A01 T00071047  RH  067%=      5-min Rain = 0
KLE1 091612Z 26005KT 01/M05 A3041 RMK A01 T00071046  RH  068%=      5-min Rain = 0
KLE1 091613Z 26006KT 01/M04 A3041 RMK A01 T00081043  RH  069%=      5-min Rain = 0
KLE1 091614Z 28005KT 01/M04 A3041 RMK A01 T00101041  RH  069%=      5-min Rain = 0
KLE1 091615Z 27006KT 01/M04 A3041 RMK A01 T00111041  RH  068%=      5-min Rain = 0
KLE1 091616Z 27005KT 01/M04 A3041 RMK A01 T00111044  RH  066%=      5-min Rain = 0
KLE1 091617Z 27005KT 01/M05 A3041 RMK A01 T00121045  RH  066%=      5-min Rain = 0
KLE1 091618Z 27006KT 01/M04 A3041 RMK A01 T00121044  RH  066%=      5-min Rain = 0
KLE1 091619Z 28005KT 01/M04 A3041 RMK A01 T00131044  RH  066%=      5-min Rain = 0
KLE1 091620Z 28006KT 01/M04 A3041 RMK A01 T00141043  RH  066%=      5-min Rain = 0
KLE1 091621Z 28005KT 02/M04 A3041 RMK A01 T00151043  RH  065%=      5-min Rain = 0
KLE1 091622Z 28006KT 02/M04 A3041 RMK A01 T00161041  RH  066%=      5-min Rain = 0
KLE1 091623Z 28006KT 02/M04 A3041 RMK A01 T00171040  RH  066%=      5-min Rain = 0
KLE1 091624Z 28006KT 02/M04 A3041 RMK A01 T00181042  RH  064%=      5-min Rain = 0
KLE1 091625Z 28006KT 02/M04 A3041 RMK A01 T00181041  RH  065%=      5-min Rain = 0
KLE1 091626Z 29005KT 02/M04 A3041 RMK A01 T00201039  RH  065%=      5-min Rain = 0
KLE1 091627Z 28006KT 02/M04 A3041 RMK A01 T00211040  RH  064%=      5-min Rain = 0
KLE1 091628Z 27006KT 02/M04 A3041 RMK A01 T00211042  RH  063%=      5-min Rain = 0
KLE1 091629Z 26005KT 02/M04 A3041 RMK A01 T00211040  RH  064%=      5-min Rain = 0
KLE1 091630Z 26006KT 02/M04 A3041 RMK A01 T00221037  RH  065%=      5-min Rain = 0
KLE1 091631Z 29004KT 02/M04 A3041 RMK A01 T00231038  RH  064%=      5-min Rain = 0
KLE1 091632Z 28005KT 02/M04 A3041 RMK A01 T00241039  RH  063%=      5-min Rain = 0
KLE1 091633Z 27004KT 03/M04 A3041 RMK A01 T00251041  RH  062%=      5-min Rain = 0
KLE1 091634Z 26004KT 03/M04 A3041 RMK A01 T00261038  RH  063%=      5-min Rain = 0
KLE1 091635Z 26005KT 03/M04 A3041 RMK A01 T00271037  RH  063%=      5-min Rain = 0
KLE1 091636Z 28004KT 03/M04 A3041 RMK A01 T00271039  RH  062%=      5-min Rain = 0
KLE1 091637Z 26003KT 03/M04 A3041 RMK A01 T00281043  RH  060%=      5-min Rain = 0
KLE1 091638Z 27004KT 03/M04 A3041 RMK A01 T00291038  RH  061%=      5-min Rain = 0
KLE1 091639Z 26005KT 03/M04 A3041 RMK A01 T00301043  RH  059%=      5-min Rain = 0
KLE1 091640Z 27004KT 03/M05 A3041 RMK A01 T00301045  RH  058%=      5-min Rain = 0
KLE1 091641Z 26003KT 03/M05 A3041 RMK A01 T00301045  RH  058%=      5-min Rain = 0
KLE1 091642Z 29003KT 03/M04 A3041 RMK A01 T00311043  RH  058%=      5-min Rain = 0
KLE1 091643Z 28004KT 03/M04 A3041 RMK A01 T00331043  RH  057%=      5-min Rain = 0
KLE1 091644Z 27004KT 03/M04 A3041 RMK A01 T00341040  RH  058%=      5-min Rain = 0
KLE1 091645Z 27004KT 04/M04 A3041 RMK A01 T00351041  RH  058%=      5-min Rain = 0
KLE1 091646Z 27004KT 04/M04 A3041 RMK A01 T00351040  RH  058%=      5-min Rain = 0
KLE1 091647Z 28004KT 04/M04 A3041 RMK A01 T00351039  RH  058%=      5-min Rain = 0
KLE1 091648Z 30004KT 04/M04 A3041 RMK A01 T00351042  RH  057%=      5-min Rain = 0
KLE1 091649Z 27004KT 04/M04 A3041 RMK A01 T00361043  RH  056%=      5-min Rain = 0
KLE1 091650Z 26004KT 04/M04 A3041 RMK A01 T00371042  RH  056%=      5-min Rain = 0
KLE1 091651Z 26005KT 04/M04 A3041 RMK A01 T00381041  RH  056%=      5-min Rain = 0
KLE1 091652Z 25004KT 04/M04 A3041 RMK A01 T00391040  RH  056%=      5-min Rain = 0
KLE1 091653Z 26005KT 04/M04 A3041 RMK A01 T00401042  RH  055%=      5-min Rain = 0
KLE1 091654Z 28004KT 04/M04 A3041 RMK A01 T00411042  RH  055%=      5-min Rain = 0
KLE1 091655Z 27005KT 04/M04 A3041 RMK A01 T00421043  RH  054%=      5-min Rain = 0
KLE1 091656Z 27005KT 04/M04 A3041 RMK A01 T00421044  RH  054%=      5-min Rain = 0
KLE1 091657Z 27005KT 04/M05 A3041 RMK A01 T00421046  RH  053%=      5-min Rain = 0
KLE1 091658Z 27005KT 04/M05 A3041 RMK A01 T00431048  RH  052%=      5-min Rain = 0
KLE1 091659Z 27004KT 04/M06 A3041 RMK A01 T00421055  RH  049%=      5-min Rain = 0
KLE1 091700Z 28004KT 04/M06 A3041 RMK A01 T00411056  RH  049%=      5-min Rain = 0
KLE1 091701Z 27005KT 04/M05 A3041 RMK A01 T00421048  RH  052%=      5-min Rain = 0
KLE1 091702Z 27005KT 05/M04 A3041 RMK A01 T00451044  RH  053%=      5-min Rain = 0
KLE1 091703Z 27005KT 05/M05 A3041 RMK A01 T00461046  RH  052%=      5-min Rain = 0
KLE1 091704Z 27004KT 05/M05 A304 RMK A01 T00461049  RH  050%=      5-min Rain = 0
KLE1 091705Z 25005KT 05/M05 A304 RMK A01 T00471047  RH  051%=      5-min Rain = 0
KLE1 091706Z 25005KT 05/M05 A304 RMK A01 T00471045  RH  051%=      5-min Rain = 0
KLE1 091707Z 24005KT 05/M05 A304 RMK A01 T00481047  RH  050%=      5-min Rain = 0
KLE1 091708Z 25006KT 05/M05 A304 RMK A01 T00481045  RH  051%=      5-min Rain = 0
KLE1 091709Z 24006KT 05/M05 A304 RMK A01 T00481047  RH  050%=      5-min Rain = 0
KLE1 091710Z 25004KT 05/M05 A304 RMK A01 T00481045  RH  051%=      5-min Rain = 0
KLE1 091711Z 24005KT 05/M05 A304 RMK A01 T00501045  RH  050%=      5-min Rain = 0
KLE1 091712Z 23004KT 05/M05 A304 RMK A01 T00511049  RH  048%=      5-min Rain = 0
KLE1 091713Z 24005KT 05/M05 A304 RMK A01 T00511047  RH  049%=      5-min Rain = 0
KLE1 091714Z 24005KT 05/M05 A304 RMK A01 T00511045  RH  050%=      5-min Rain = 0
KLE1 091715Z 24005KT 05/M05 A304 RMK A01 T00511046  RH  049%=      5-min Rain = 0
KLE1 091716Z 27005KT 05/M05 A304 RMK A01 T00511047  RH  049%=      5-min Rain = 0
KLE1 091717Z 27005KT 05/M05 A304 RMK A01 T00511047  RH  049%=      5-min Rain = 0
KLE1 091718Z 25005KT 05/M05 A304 RMK A01 T00511051  RH  048%=      5-min Rain = 0
KLE1 091719Z 24004KT 05/M05 A304 RMK A01 T00511051  RH  048%=      5-min Rain = 0
KLE1 091720Z 24005KT 05/M05 A304 RMK A01 T00521050  RH  048%=      5-min Rain = 0
KLE1 091721Z 25005KT 05/M05 A304 RMK A01 T00531051  RH  047%=      5-min Rain = 0
KLE1 091722Z 24005KT 05/M05 A304 RMK A01 T00541053  RH  046%=      5-min Rain = 0
KLE1 091723Z 27005KT 06/M05 A304 RMK A01 T00551053  RH  046%=      5-min Rain = 0
KLE1 091724Z 24005KT 06/M06 A304 RMK A01 T00561055  RH  045%=      5-min Rain = 0
KLE1 091725Z 25005KT 06/M06 A304 RMK A01 T00551056  RH  045%=      5-min Rain = 0
KLE1 091726Z 27006KT 06/M06 A304 RMK A01 T00561056  RH  044%=      5-min Rain = 0
KLE1 091727Z 25005KT 06/M06 A304 RMK A01 T00561057  RH  044%=      5-min Rain = 0
KLE1 091728Z 24004KT 06/M06 A304 RMK A01 T00561060  RH  043%=      5-min Rain = 0
KLE1 091729Z 25006KT 06/M06 A304 RMK A01 T00561055  RH  045%=      5-min Rain = 0
KLE1 091730Z 25005KT 06/M05 A304 RMK A01 T00581053  RH  045%=      5-min Rain = 0
KLE1 091731Z 23005KT 06/M06 A304 RMK A01 T00581057  RH  043%=      5-min Rain = 0
KLE1 091732Z 25005KT 06/M05 A304 RMK A01 T00591054  RH  044%=      5-min Rain = 0
KLE1 091733Z 27005KT 06/M05 A304 RMK A01 T00601052  RH  044%=      5-min Rain = 0
KLE1 091734Z 25005KT 06/M05 A304 RMK A01 T00611054  RH  044%=      5-min Rain = 0
KLE1 091735Z 25004KT 06/M06 A304 RMK A01 T00611056  RH  043%=      5-min Rain = 0
KLE1 091736Z 25004KT 06/M06 A304 RMK A01 T00611059  RH  042%=      5-min Rain = 0
KLE1 091737Z 27003KT 06/M05 A3039 RMK A01 T00621054  RH  043%=      5-min Rain = 0
KLE1 091738Z 26004KT 06/M06 A3039 RMK A01 T00631056  RH  042%=      5-min Rain = 0
KLE1 091739Z 26002KT 06/M06 A3039 RMK A01 T00611062  RH  041%=      5-min Rain = 0
KLE1 091740Z 28004KT 06/M06 A3039 RMK A01 T00601059  RH  042%=      5-min Rain = 0
KLE1 091741Z 28004KT 06/M05 A3039 RMK A01 T00621054  RH  043%=      5-min Rain = 0
KLE1 091742Z 26004KT 06/M06 A3039 RMK A01 T00641056  RH  042%=      5-min Rain = 0
KLE1 091743Z 26003KT 06/M06 A3039 RMK A01 T00641059  RH  041%=      5-min Rain = 0
KLE1 091744Z 28000KT 06/M06 A3039 RMK A01 T00631062  RH  040%=      5-min Rain = 0
KLE1 091745Z 33001KT 06/M06 A3039 RMK A01 T00631061  RH  041%=      5-min Rain = 0
KLE1 091746Z 25002KT 07/M05 A3039 RMK A01 T00651053  RH  043%=      5-min Rain = 0
KLE1 091747Z 25003KT 07/M05 A3039 RMK A01 T00671048  RH  044%=      5-min Rain = 0
KLE1 091748Z 25005KT 07/M05 A3039 RMK A01 T00691049  RH  043%=      5-min Rain = 0
KLE1 091749Z 26004KT 07/M05 A3039 RMK A01 T00701048  RH  043%=      5-min Rain = 0
KLE1 091750Z 26003KT 07/M05 A3039 RMK A01 T00701050  RH  042%=      5-min Rain = 0
KLE1 091751Z 27004KT 07/M05 A3039 RMK A01 T00701050  RH  042%=      5-min Rain = 0
KLE1 091752Z 27004KT 07/M05 A3039 RMK A01 T00701052  RH  042%=      5-min Rain = 0
KLE1 091753Z 25002KT 07/M06 A3039 RMK A01 T00681056  RH  041%=      5-min Rain = 0
KLE1 091754Z 24002KT 07/M05 A3039 RMK A01 T00671054  RH  042%=      5-min Rain = 0
KLE1 091755Z 28004KT 07/M06 A3039 RMK A01 T00671055  RH  041%=      5-min Rain = 0
KLE1 091756Z 27004KT 07/M05 A3039 RMK A01 T00671054  RH  042%=      5-min Rain = 0
KLE1 091757Z 26006KT 07/M05 A3039 RMK A01 T00671051  RH  043%=      5-min Rain = 0
KLE1 091758Z 25005KT 07/M05 A3039 RMK A01 T00681051  RH  042%=      5-min Rain = 0
KLE1 091759Z 25004KT 07/M05 A3039 RMK A01 T00671054  RH  041%=      5-min Rain = 0
KLE1 091800Z 25003KT 07/M06 A3038 RMK A01 T00671055  RH  041%=      5-min Rain = 0
KLE1 091801Z 25004KT 07/M06 A3038 RMK A01 T00671055  RH  041%=      5-min Rain = 0
KLE1 091802Z 23003KT 07/M05 A3038 RMK A01 T00681053  RH  042%=      5-min Rain = 0
KLE1 091803Z 21001KT 07/M06 A3038 RMK A01 T00691055  RH  041%=      5-min Rain = 0
KLE1 091804Z 28001KT 07/M06 A3038 RMK A01 T00701055  RH  041%=      5-min Rain = 0
KLE1 091805Z 23003KT 07/M05 A3038 RMK A01 T00721050  RH  042%=      5-min Rain = 0
KLE1 091806Z 27004KT 07/M05 A3038 RMK A01 T00741052  RH  041%=      5-min Rain = 0
KLE1 091807Z 28003KT 07/M06 A3038 RMK A01 T00711058  RH  039%=      5-min Rain = 0
KLE1 091808Z 25003KT 07/M06 A3038 RMK A01 T00681057  RH  041%=      5-min Rain = 0
KLE1 091809Z 23004KT 07/M05 A3038 RMK A01 T00681053  RH  042%=      5-min Rain = 0
KLE1 091810Z 23003KT 07/M05 A3038 RMK A01 T00691053  RH  041%=      5-min Rain = 0
KLE1 091811Z 24002KT 07/M05 A3038 RMK A01 T00691054  RH  041%=      5-min Rain = 0
KLE1 091812Z 22002KT 07/M05 A3038 RMK A01 T00701053  RH  041%=      5-min Rain = 0
KLE1 091813Z 21003KT 07/M05 A3038 RMK A01 T00721050  RH  042%=      5-min Rain = 0
KLE1 091814Z 22004KT 07/M05 A3038 RMK A01 T00741050  RH  041%=      5-min Rain = 0
KLE1 091815Z 19004KT 07/M05 A3038 RMK A01 T00741052  RH  040%=      5-min Rain = 0
KLE1 091816Z 22003KT 07/M05 A3038 RMK A01 T00741052  RH  041%=      5-min Rain = 0
KLE1 091817Z 29002KT 07/M05 A3038 RMK A01 T00731051  RH  041%=      5-min Rain = 0
KLE1 091818Z 30003KT 07/M05 A3038 RMK A01 T00731053  RH  040%=      5-min Rain = 0
KLE1 091819Z 32002KT 07/M06 A3037 RMK A01 T00731055  RH  040%=      5-min Rain = 0
KLE1 091820Z 26002KT 07/M06 A3037 RMK A01 T00731055  RH  040%=      5-min Rain = 0
KLE1 091821Z 26002KT 07/M06 A3037 RMK A01 T00731056  RH  040%=      5-min Rain = 0
KLE1 091822Z 26000KT 07/M06 A3037 RMK A01 T00721057  RH  039%=      5-min Rain = 0
KLE1 091823Z 11001KT 07/M06 A3037 RMK A01 T00721057  RH  039%=      5-min Rain = 0
KLE1 091824Z 08001KT 07/M05 A3037 RMK A01 T00731053  RH  040%=      5-min Rain = 0
KLE1 091825Z 16000KT 08/M05 A3037 RMK A01 T00751050  RH  041%=      5-min Rain = 0
KLE1 091826Z 24001KT 08/M05 A3037 RMK A01 T00771050  RH  040%=      5-min Rain = 0
KLE1 091827Z 26002KT 08/M05 A3037 RMK A01 T00781050  RH  040%=      5-min Rain = 0
KLE1 091828Z 28000KT 08/M05 A3037 RMK A01 T00781053  RH  039%=      5-min Rain = 0
KLE1 091829Z 00000KT 08/M05 A3037 RMK A01 T00781054  RH  039%=      5-min Rain = 0
KLE1 091830Z 33001KT 08/M05 A3037 RMK A01 T00781052  RH  039%=      5-min Rain = 0
KLE1 091831Z 26001KT 08/M05 A3036 RMK A01 T00791049  RH  040%=      5-min Rain = 0
KLE1 091832Z 22002KT 08/M05 A3036 RMK A01 T00801050  RH  039%=      5-min Rain = 0
KLE1 091833Z 20002KT 08/M05 A3036 RMK A01 T00801054  RH  038%=      5-min Rain = 0
KLE1 091834Z 23003KT 08/M05 A3036 RMK A01 T00791052  RH  039%=      5-min Rain = 0
KLE1 091835Z 22003KT 08/M05 A3036 RMK A01 T00801051  RH  039%=      5-min Rain = 0
KLE1 091836Z 26001KT 08/M05 A3036 RMK A01 T00801051  RH  039%=      5-min Rain = 0
KLE1 091837Z 26004KT 08/M05 A3036 RMK A01 T00811048  RH  040%=      5-min Rain = 0
KLE1 091838Z 28004KT 08/M05 A3036 RMK A01 T00811048  RH  039%=      5-min Rain = 0
KLE1 091839Z 26003KT 08/M05 A3036 RMK A01 T00821048  RH  039%=      5-min Rain = 0
KLE1 091840Z 26002KT 08/M05 A3036 RMK A01 T00821053  RH  038%=      5-min Rain = 0
KLE1 091841Z 29004KT 08/M05 A3036 RMK A01 T00811052  RH  038%=      5-min Rain = 0
KLE1 091842Z 34002KT 08/M05 A3036 RMK A01 T00801053  RH  038%=      5-min Rain = 0
KLE1 091843Z 34001KT 08/M06 A3036 RMK A01 T00791055  RH  038%=      5-min Rain = 0
KLE1 091844Z 27003KT 08/M05 A3036 RMK A01 T00791050  RH  040%=      5-min Rain = 0
KLE1 091845Z 27004KT 08/M05 A3036 RMK A01 T00801049  RH  040%=      5-min Rain = 0
KLE1 091846Z 30002KT 08/M05 A3036 RMK A01 T00801052  RH  039%=      5-min Rain = 0
KLE1 091847Z 29003KT 08/M05 A3036 RMK A01 T00791051  RH  039%=      5-min Rain = 0
KLE1 091848Z 25004KT 08/M05 A3036 RMK A01 T00811047  RH  040%=      5-min Rain = 0
KLE1 091849Z 25005KT 08/M05 A3036 RMK A01 T00831047  RH  039%=      5-min Rain = 0
KLE1 091850Z 29005KT 08/M05 A3036 RMK A01 T00841051  RH  038%=      5-min Rain = 0
KLE1 091851Z 30003KT 08/M05 A3035 RMK A01 T00821053  RH  038%=      5-min Rain = 0
KLE1 091852Z 30002KT 08/M05 A3035 RMK A01 T00811051  RH  039%=      5-min Rain = 0
KLE1 091853Z 23003KT 08/M05 A3035 RMK A01 T00821048  RH  040%=      5-min Rain = 0
KLE1 091854Z 21002KT 08/M05 A3035 RMK A01 T00821052  RH  038%=      5-min Rain = 0
KLE1 091855Z 22003KT 08/M05 A3035 RMK A01 T00841050  RH  038%=      5-min Rain = 0
KLE1 091856Z 23004KT 09/M05 A3035 RMK A01 T00851051  RH  038%=      5-min Rain = 0
KLE1 091857Z 23006KT 09/M05 A3035 RMK A01 T00851052  RH  037%=      5-min Rain = 0
KLE1 091858Z 25005KT 08/M05 A3035 RMK A01 T00841052  RH  038%=      5-min Rain = 0
KLE1 091859Z 26004KT 08/M05 A3035 RMK A01 T00841052  RH  038%=      5-min Rain = 0
KLE1 091900Z 26003KT 09/M05 A3035 RMK A01 T00851052  RH  037%=      5-min Rain = 0
KLE1 091901Z 23004KT 09/M04 A3035 RMK A01 T00871044  RH  039%=      5-min Rain = 0
KLE1 091902Z 23004KT 09/M05 A3035 RMK A01 T00901047  RH  038%=      5-min Rain = 0
KLE1 091903Z 25004KT 09/M05 A3035 RMK A01 T00901052  RH  036%=      5-min Rain = 0
KLE1 091904Z 26003KT 09/M05 A3035 RMK A01 T00891053  RH  036%=      5-min Rain = 0
KLE1 091905Z 26004KT 09/M05 A3035 RMK A01 T00881052  RH  037%=      5-min Rain = 0
KLE1 091906Z 27003KT 09/M05 A3035 RMK A01 T00881052  RH  037%=      5-min Rain = 0
KLE1 091907Z 31001KT 09/M05 A3035 RMK A01 T00871054  RH  036%=      5-min Rain = 0
KLE1 091908Z 00000KT 09/M06 A3035 RMK A01 T00861056  RH  036%=      5-min Rain = 0
KLE1 091909Z 30003KT 09/M05 A3035 RMK A01 T00861051  RH  037%=      5-min Rain = 0
KLE1 091910Z 31003KT 09/M05 A3035 RMK A01 T00871053  RH  037%=      5-min Rain = 0
KLE1 091911Z 34002KT 09/M06 A3035 RMK A01 T00861056  RH  036%=      5-min Rain = 0
KLE1 091912Z 32000KT 09/M06 A3035 RMK A01 T00861055  RH  036%=      5-min Rain = 0
KLE1 091913Z 21001KT 09/M05 A3035 RMK A01 T00861051  RH  037%=      5-min Rain = 0
KLE1 091914Z 22006KT 09/M05 A3035 RMK A01 T00891049  RH  037%=      5-min Rain = 0
KLE1 091915Z 32005G11KT 09/M05 A3035 RMK A01 T00931048  RH  037%=      5-min Rain = 0
KLE1 091916Z 28002KT 09/M05 A3035 RMK A01 T00941049  RH  036%=      5-min Rain = 0
KLE1 091917Z 19002KT 09/M05 A3035 RMK A01 T00941049  RH  036%=      5-min Rain = 0
KLE1 091918Z 24003KT 10/M05 A3035 RMK A01 T00951048  RH  036%=      5-min Rain = 0
KLE1 091919Z 23003KT 10/M05 A3035 RMK A01 T00961052  RH  035%=      5-min Rain = 0
KLE1 091920Z 23005KT 10/M05 A3035 RMK A01 T00951053  RH  035%=      5-min Rain = 0
KLE1 091921Z 23005KT 09/M05 A3035 RMK A01 T00941054  RH  035%=      5-min Rain = 0
KLE1 091922Z 23003KT 09/M06 A3035 RMK A01 T00931056  RH  035%=      5-min Rain = 0
KLE1 091923Z 21004KT 09/M06 A3035 RMK A01 T00911057  RH  035%=      5-min Rain = 0
KLE1 091924Z 23004KT 09/M06 A3035 RMK A01 T00901056  RH  035%=      5-min Rain = 0
KLE1 091925Z 27003KT 09/M05 A3035 RMK A01 T00911054  RH  035%=      5-min Rain = 0
KLE1 091926Z 29004KT 09/M05 A3035 RMK A01 T00921054  RH  035%=      5-min Rain = 0
KLE1 091927Z 28004KT 09/M05 A3035 RMK A01 T00921051  RH  036%=      5-min Rain = 0
KLE1 091928Z 27004KT 09/M06 A3035 RMK A01 T00921055  RH  035%=      5-min Rain = 0
KLE1 091929Z 29004KT 09/M06 A3034 RMK A01 T00911057  RH  035%=      5-min Rain = 0
KLE1 091930Z 28003KT 09/M06 A3034 RMK A01 T00891057  RH  035%=      5-min Rain = 0
KLE1 091931Z 28003KT 09/M06 A3034 RMK A01 T00871059  RH  035%=      5-min Rain = 0
KLE1 091932Z 30004KT 09/M06 A3034 RMK A01 T00871057  RH  036%=      5-min Rain = 0
KLE1 091933Z 29003KT 09/M06 A3034 RMK A01 T00861057  RH  036%=      5-min Rain = 0
KLE1 091934Z 30002KT 09/M06 A3034 RMK A01 T00861058  RH  035%=      5-min Rain = 0
KLE1 091935Z 29002KT 09/M06 A3034 RMK A01 T00861059  RH  035%=      5-min Rain = 0
KLE1 091936Z 21000KT 09/M06 A3034 RMK A01 T00861058  RH  035%=      5-min Rain = 0
KLE1 091937Z 14001KT 09/M06 A3034 RMK A01 T00871062  RH  034%=      5-min Rain = 0
KLE1 091938Z 12000KT 09/M06 A3034 RMK A01 T00891059  RH  035%=      5-min Rain = 0
KLE1 091939Z 14001KT 09/M06 A3034 RMK A01 T00901060  RH  034%=      5-min Rain = 0
KLE1 091940Z 23002KT 09/M06 A3034 RMK A01 T00931058  RH  034%=      5-min Rain = 0
KLE1 091941Z 26003KT 09/M06 A3034 RMK A01 T00931060  RH  033%=      5-min Rain = 0
KLE1 091942Z 30004KT 09/M06 A3034 RMK A01 T00931060  RH  033%=      5-min Rain = 0
KLE1 091943Z 33001KT 09/M06 A3034 RMK A01 T00931061  RH  033%=      5-min Rain = 0
KLE1 091944Z 30001KT 09/M06 A3034 RMK A01 T00931055  RH  035%=      5-min Rain = 0
KLE1 091945Z 25003KT 10/M05 A3034 RMK A01 T00951051  RH  035%=      5-min Rain = 0
KLE1 091946Z 23003KT 10/M05 A3034 RMK A01 T00991048  RH  035%=      5-min Rain = 0
KLE1 091947Z 23003KT 10/M05 A3034 RMK A01 T01011048  RH  034%=      5-min Rain = 0
KLE1 091948Z 23005KT 10/M05 A3034 RMK A01 T01031049  RH  034%=      5-min Rain = 0
KLE1 091949Z 24005KT 10/M05 A3034 RMK A01 T01031051  RH  033%=      5-min Rain = 0
KLE1 091950Z 22005KT 10/M06 A3034 RMK A01 T01001056  RH  033%=      5-min Rain = 0
KLE1 091951Z 22004KT 10/M06 A3034 RMK A01 T00961060  RH  033%=      5-min Rain = 0
KLE1 091952Z 20004KT 10/M06 A3034 RMK A01 T00951057  RH  034%=      5-min Rain = 0
KLE1 091953Z 17004KT 10/M06 A3034 RMK A01 T00951059  RH  033%=      5-min Rain = 0
KLE1 091954Z 17003KT 09/M06 A3034 RMK A01 T00941060  RH  033%=      5-min Rain = 0
KLE1 091955Z 21003KT 09/M06 A3034 RMK A01 T00931058  RH  034%=      5-min Rain = 0
KLE1 091956Z 22004KT 10/M06 A3034 RMK A01 T00951055  RH  034%=      5-min Rain = 0
KLE1 091957Z 25002KT 10/M05 A3034 RMK A01 T00971054  RH  034%=      5-min Rain = 0
KLE1 091958Z 24001KT 10/M06 A3034 RMK A01 T00981055  RH  034%=      5-min Rain = 0
KLE1 091959Z 22001KT 10/M05 A3034 RMK A01 T00991053  RH  034%=      5-min Rain = 0
KLE1 092000Z 25002KT 10/M05 A3034 RMK A01 T01011054  RH  033%=      5-min Rain = 0
KLE1 092001Z 26004KT 10/M06 A3034 RMK A01 T01021055  RH  033%=      5-min Rain = 0
KLE1 092002Z 23003KT 10/M05 A3034 RMK A01 T01021054  RH  033%=      5-min Rain = 0
KLE1 092003Z 24004KT 10/M06 A3034 RMK A01 T01021057  RH  032%=      5-min Rain = 0
KLE1 092004Z 27004KT 10/M06 A3034 RMK A01 T01011059  RH  032%=      5-min Rain = 0
KLE1 092005Z 27005KT 10/M06 A3034 RMK A01 T01011057  RH  032%=      5-min Rain = 0
KLE1 092006Z 26005KT 10/M06 A3034 RMK A01 T01011058  RH  032%=      5-min Rain = 0
KLE1 092007Z 26004KT 10/M06 A3034 RMK A01 T00991060  RH  032%=      5-min Rain = 0
KLE1 092008Z 27003KT 10/M06 A3034 RMK A01 T00981058  RH  033%=      5-min Rain = 0
KLE1 092009Z 28003KT 10/M06 A3034 RMK A01 T00971061  RH  032%=      5-min Rain = 0
KLE1 092010Z 28003KT 10/M06 A3033 RMK A01 T00961060  RH  033%=      5-min Rain = 0
KLE1 092011Z 00001KT 10/M06 A3033 RMK A01 T00961060  RH  033%=      5-min Rain = 0
KLE1 092012Z 08002KT 10/M06 A3033 RMK A01 T00961059  RH  033%=      5-min Rain = 0
KLE1 092013Z 09001KT 10/M06 A3033 RMK A01 T00951062  RH  032%=      5-min Rain = 0
KLE1 092014Z 05001KT 10/M06 A3033 RMK A01 T00951062  RH  032%=      5-min Rain = 0
KLE1 092015Z 21000KT 10/M06 A3033 RMK A01 T00951062  RH  032%=      5-min Rain = 0
KLE1 092016Z 13000KT 10/M06 A3033 RMK A01 T00971055  RH  034%=      5-min Rain = 0
KLE1 092017Z 15003KT 10/M06 A3033 RMK A01 T01001056  RH  033%=      5-min Rain = 0
KLE1 092018Z 22003KT 10/M06 A3033 RMK A01 T01001059  RH  032%=      5-min Rain = 0
KLE1 092019Z 23003KT 10/M06 A3033 RMK A01 T01011060  RH  032%=      5-min Rain = 0
KLE1 092020Z 21003KT 10/M06 A3033 RMK A01 T01021060  RH  032%=      5-min Rain = 0
KLE1 092021Z 19003KT 10/M05 A3033 RMK A01 T01041054  RH  032%=      5-min Rain = 0
KLE1 092022Z 21004KT 11/M05 A3033 RMK A01 T01081052  RH  032%=      5-min Rain = 0
KLE1 092023Z 20004KT 11/M06 A3033 RMK A01 T01101056  RH  031%=      5-min Rain = 0
KLE1 092024Z 16003KT 11/M06 A3033 RMK A01 T01081060  RH  030%=      5-min Rain = 0
KLE1 092025Z 15003KT 11/M06 A3033 RMK A01 T01061060  RH  031%=      5-min Rain = 0
KLE1 092026Z 19004KT 11/M06 A3033 RMK A01 T01051058  RH  031%=      5-min Rain = 0
KLE1 092027Z 19004KT 11/M06 A3033 RMK A01 T01051060  RH  031%=      5-min Rain = 0
KLE1 092028Z 17003KT 10/M06 A3033 RMK A01 T01031062  RH  031%=      5-min Rain = 0
KLE1 092029Z 19003KT 10/M06 A3033 RMK A01 T01021063  RH  031%=      5-min Rain = 0
KLE1 092030Z 17003KT 10/M06 A3033 RMK A01 T01011063  RH  031%=      5-min Rain = 0
KLE1 092031Z 18002KT 10/M06 A3033 RMK A01 T01021059  RH  032%=      5-min Rain = 0
KLE1 092032Z 22003KT 10/M06 A3033 RMK A01 T01031060  RH  031%=      5-min Rain = 0
KLE1 092033Z 24004KT 10/M06 A3033 RMK A01 T01041064  RH  030%=      5-min Rain = 0
KLE1 092034Z 24004KT 10/M06 A3033 RMK A01 T01031064  RH  030%=      5-min Rain = 0
KLE1 092035Z 25004KT 10/M07 A3033 RMK A01 T01031065  RH  030%=      5-min Rain = 0
KLE1 092036Z 27003KT 10/M06 A3033 RMK A01 T01021064  RH  031%=      5-min Rain = 0
KLE1 092037Z 25002KT 10/M07 A3033 RMK A01 T01011065  RH  030%=      5-min Rain = 0
KLE1 092038Z 26004KT 10/M07 A3033 RMK A01 T01011067  RH  030%=      5-min Rain = 0
KLE1 092039Z 26004KT 10/M07 A3033 RMK A01 T01011066  RH  030%=      5-min Rain = 0
KLE1 092040Z 26003KT 10/M07 A3033 RMK A01 T01011065  RH  030%=      5-min Rain = 0
KLE1 092041Z 26004KT 10/M06 A3033 RMK A01 T01021064  RH  030%=      5-min Rain = 0
KLE1 092042Z 28002KT 10/M07 A3033 RMK A01 T01011068  RH  030%=      5-min Rain = 0
KLE1 092043Z 31001KT 10/M07 A3033 RMK A01 T01001065  RH  031%=      5-min Rain = 0
KLE1 092044Z 35002KT 10/M06 A3033 RMK A01 T01021064  RH  031%=      5-min Rain = 0
KLE1 092045Z 35002KT 10/M06 A3033 RMK A01 T01031064  RH  030%=      5-min Rain = 0
KLE1 092046Z 01001KT 10/M07 A3033 RMK A01 T01041066  RH  030%=      5-min Rain = 0
KLE1 092047Z 35001KT 10/M07 A3033 RMK A01 T01031067  RH  030%=      5-min Rain = 0
KLE1 092048Z 02001KT 10/M07 A3033 RMK A01 T01021068  RH  030%=      5-min Rain = 0
KLE1 092049Z 31001KT 10/M07 A3033 RMK A01 T01021065  RH  030%=      5-min Rain = 0
KLE1 092050Z 24002KT 10/M06 A3033 RMK A01 T01041058  RH  032%=      5-min Rain = 0
KLE1 092051Z 16002KT 11/M06 A3032 RMK A01 T01061059  RH  031%=      5-min Rain = 0
KLE1 092052Z 23001KT 11/M06 A3032 RMK A01 T01071062  RH  030%=      5-min Rain = 0
KLE1 092053Z 25003KT 11/M06 A3032 RMK A01 T01071062  RH  030%=      5-min Rain = 0
KLE1 092054Z 23004KT 11/M06 A3032 RMK A01 T01081060  RH  030%=      5-min Rain = 0
KLE1 092055Z 22003KT 11/M06 A3032 RMK A01 T01081060  RH  030%=      5-min Rain = 0
KLE1 092056Z 21002KT 11/M06 A3032 RMK A01 T01071064  RH  029%=      5-min Rain = 0
KLE1 092057Z 23002KT 11/M07 A3032 RMK A01 T01061067  RH  029%=      5-min Rain = 0
KLE1 092058Z 25001KT 11/M07 A3032 RMK A01 T01061066  RH  029%=      5-min Rain = 0
KLE1 092059Z 15003KT 11/M06 A3032 RMK A01 T01061061  RH  030%=      5-min Rain = 0
KLE1 092100Z 15004KT 11/M06 A3032 RMK A01 T01071058  RH  031%=      5-min Rain = 0
KLE1 092101Z 13004KT 11/M06 A3032 RMK A01 T01061058  RH  031%=      5-min Rain = 0
KLE1 092102Z 15004KT 11/M06 A3032 RMK A01 T01051056  RH  032%=      5-min Rain = 0
KLE1 092103Z 15004KT 11/M06 A3032 RMK A01 T01061057  RH  031%=      5-min Rain = 0
KLE1 092104Z 14003KT 11/M06 A3032 RMK A01 T01051059  RH  031%=      5-min Rain = 0
KLE1 092105Z 14004KT 11/M06 A3032 RMK A01 T01051056  RH  032%=      5-min Rain = 0
KLE1 092106Z 16004KT 11/M06 A3032 RMK A01 T01061057  RH  031%=      5-min Rain = 0
KLE1 092107Z 17003KT 11/M06 A3032 RMK A01 T01061062  RH  030%=      5-min Rain = 0
KLE1 092108Z 16005KT 11/M06 A3032 RMK A01 T01061063  RH  030%=      5-min Rain = 0
KLE1 092109Z 17002KT 11/M06 A3032 RMK A01 T01051063  RH  030%=      5-min Rain = 0
KLE1 092110Z 15004KT 11/M06 A3032 RMK A01 T01051062  RH  030%=      5-min Rain = 0
KLE1 092111Z 14004KT 11/M06 A3032 RMK A01 T01061059  RH  031%=      5-min Rain = 0
KLE1 092112Z 16003KT 11/M06 A3032 RMK A01 T01061056  RH  031%=      5-min Rain = 0
KLE1 092113Z 17002KT 11/M06 A3032 RMK A01 T01071058  RH  031%=      5-min Rain = 0
KLE1 092114Z 20003KT 11/M06 A3032 RMK A01 T01081058  RH  031%=      5-min Rain = 0
KLE1 092115Z 18001KT 11/M06 A3032 RMK A01 T01091060  RH  030%=      5-min Rain = 0
KLE1 092116Z 19000KT 11/M07 A3032 RMK A01 T01091065  RH  029%=      5-min Rain = 0
KLE1 092117Z 16003KT 11/M06 A3032 RMK A01 T01101063  RH  029%=      5-min Rain = 0
KLE1 092118Z 13004KT 11/M06 A3033 RMK A01 T01101059  RH  030%=      5-min Rain = 0
KLE1 092119Z 13004KT 11/M06 A3032 RMK A01 T01091057  RH  031%=      5-min Rain = 0
KLE1 092120Z 16005KT 11/M06 A3033 RMK A01 T01061058  RH  031%=      5-min Rain = 0
KLE1 092121Z 18004KT 11/M06 A3033 RMK A01 T01051057  RH  031%=      5-min Rain = 0
KLE1 092122Z 17003KT 11/M06 A3033 RMK A01 T01071055  RH  031%=      5-min Rain = 0
KLE1 092123Z 17002KT 11/M06 A3033 RMK A01 T01081059  RH  030%=      5-min Rain = 0
KLE1 092124Z 35002KT 11/M06 A3033 RMK A01 T01081057  RH  031%=      5-min Rain = 0
KLE1 092125Z 22004KT 11/M06 A3033 RMK A01 T01091058  RH  030%=      5-min Rain = 0
KLE1 092126Z 21005KT 11/M06 A3032 RMK A01 T01101062  RH  029%=      5-min Rain = 0
KLE1 092127Z 20003KT 11/M07 A3032 RMK A01 T01091066  RH  029%=      5-min Rain = 0
KLE1 092128Z 19004KT 11/M07 A3032 RMK A01 T01071067  RH  029%=      5-min Rain = 0
KLE1 092129Z 17003KT 11/M07 A3032 RMK A01 T01071065  RH  029%=      5-min Rain = 0
KLE1 092130Z 18003KT 11/M07 A3032 RMK A01 T01071066  RH  029%=      5-min Rain = 0
KLE1 092131Z 16002KT 11/M07 A3032 RMK A01 T01061069  RH  028%=      5-min Rain = 0
KLE1 092132Z 20004KT 11/M07 A3032 RMK A01 T01051069  RH  029%=      5-min Rain = 0
KLE1 092133Z 23005KT 11/M06 A3032 RMK A01 T01051064  RH  030%=      5-min Rain = 0
KLE1 092134Z 26002KT 11/M07 A3032 RMK A01 T01061065  RH  029%=      5-min Rain = 0
KLE1 092135Z 25003KT 11/M07 A3032 RMK A01 T01061065  RH  029%=      5-min Rain = 0
KLE1 092136Z 19003KT 11/M06 A3032 RMK A01 T01061064  RH  030%=      5-min Rain = 0
KLE1 092137Z 19005KT 11/M06 A3032 RMK A01 T01071063  RH  030%=      5-min Rain = 0
KLE1 092138Z 20006KT 11/M06 A3032 RMK A01 T01071064  RH  029%=      5-min Rain = 0
KLE1 092139Z 21005KT 11/M06 A3033 RMK A01 T01071063  RH  030%=      5-min Rain = 0
KLE1 092140Z 23006KT 11/M06 A3033 RMK A01 T01071063  RH  030%=      5-min Rain = 0
KLE1 092141Z 23007KT 11/M06 A3033 RMK A01 T01071064  RH  030%=      5-min Rain = 0
KLE1 092142Z 22005KT 11/M07 A3033 RMK A01 T01051066  RH  029%=      5-min Rain = 0
KLE1 092143Z 21005KT 10/M07 A3033 RMK A01 T01041065  RH  030%=      5-min Rain = 0
KLE1 092144Z 22003KT 11/M07 A3033 RMK A01 T01051067  RH  029%=      5-min Rain = 0
KLE1 092145Z 23003KT 10/M07 A3032 RMK A01 T01041067  RH  029%=      5-min Rain = 0
KLE1 092146Z 25004KT 10/M07 A3032 RMK A01 T01041067  RH  029%=      5-min Rain = 0
KLE1 092147Z 26003KT 11/M07 A3032 RMK A01 T01051067  RH  029%=      5-min Rain = 0
KLE1 092148Z 23004KT 11/M07 A3032 RMK A01 T01051065  RH  030%=      5-min Rain = 0
KLE1 092149Z 24003KT 11/M07 A3032 RMK A01 T01061066  RH  029%=      5-min Rain = 0
KLE1 092150Z 25004KT 11/M07 A3032 RMK A01 T01061066  RH  029%=      5-min Rain = 0
KLE1 092151Z 23005KT 11/M06 A3032 RMK A01 T01071063  RH  030%=      5-min Rain = 0
KLE1 092152Z 23004KT 11/M07 A3032 RMK A01 T01071065  RH  029%=      5-min Rain = 0
KLE1 092153Z 21004KT 11/M07 A3032 RMK A01 T01071066  RH  029%=      5-min Rain = 0
KLE1 092154Z 21004KT 11/M07 A3032 RMK A01 T01071066  RH  029%=      5-min Rain = 0
KLE1 092155Z 21003KT 11/M07 A3032 RMK A01 T01061067  RH  029%=      5-min Rain = 0
KLE1 092156Z 19002KT 11/M07 A3032 RMK A01 T01061066  RH  029%=      5-min Rain = 0
KLE1 092157Z 20001KT 11/M07 A3032 RMK A01 T01071067  RH  029%=      5-min Rain = 0
KLE1 092158Z 21002KT 11/M07 A3032 RMK A01 T01071069  RH  028%=      5-min Rain = 0
KLE1 092159Z 21004KT 11/M07 A3032 RMK A01 T01081065  RH  029%=      5-min Rain = 0
KLE1 092200Z 20004KT 11/M07 A3032 RMK A01 T01081066  RH  029%=      5-min Rain = 0
KLE1 092201Z 20003KT 11/M07 A3032 RMK A01 T01071066  RH  029%=      5-min Rain = 0
KLE1 092202Z 20002KT 11/M07 A3032 RMK A01 T01071066  RH  029%=      5-min Rain = 0
KLE1 092203Z 22005KT 11/M06 A3032 RMK A01 T01081063  RH  030%=      5-min Rain = 0
KLE1 092204Z 21005KT 11/M06 A3032 RMK A01 T01091062  RH  030%=      5-min Rain = 0
KLE1 092205Z 20007KT 11/M06 A3032 RMK A01 T01091061  RH  030%=      5-min Rain = 0
KLE1 092206Z 20006KT 11/M06 A3032 RMK A01 T01091062  RH  030%=      5-min Rain = 0
KLE1 092207Z 22006KT 11/M06 A3032 RMK A01 T01071064  RH  030%=      5-min Rain = 0
KLE1 092208Z 22006KT 11/M06 A3032 RMK A01 T01061064  RH  030%=      5-min Rain = 0
KLE1 092209Z 22006KT 11/M06 A3032 RMK A01 T01061062  RH  030%=      5-min Rain = 0
KLE1 092210Z 21005KT 11/M06 A3032 RMK A01 T01061059  RH  031%=      5-min Rain = 0
KLE1 092211Z 22005KT 11/M06 A3032 RMK A01 T01071061  RH  030%=      5-min Rain = 0
KLE1 092212Z 22006KT 11/M06 A3033 RMK A01 T01071061  RH  030%=      5-min Rain = 0
KLE1 092213Z 22006KT 11/M06 A3033 RMK A01 T01071064  RH  030%=      5-min Rain = 0
KLE1 092214Z 22005KT 11/M06 A3033 RMK A01 T01051063  RH  030%=      5-min Rain = 0
KLE1 092215Z 22006KT 11/M06 A3033 RMK A01 T01061062  RH  030%=      5-min Rain = 0
KLE1 092216Z 23005KT 11/M06 A3033 RMK A01 T01061062  RH  030%=      5-min Rain = 0
KLE1 092217Z 22006KT 11/M06 A3033 RMK A01 T01051063  RH  030%=      5-min Rain = 0
KLE1 092218Z 21005KT 11/M06 A3033 RMK A01 T01051063  RH  030%=      5-min Rain = 0
KLE1 092219Z 21005KT 10/M06 A3032 RMK A01 T01041062  RH  030%=      5-min Rain = 0
KLE1 092220Z 22006KT 11/M06 A3032 RMK A01 T01051061  RH  031%=      5-min Rain = 0
KLE1 092221Z 22007KT 11/M06 A3032 RMK A01 T01051061  RH  030%=      5-min Rain = 0
KLE1 092222Z 22008KT 10/M06 A3032 RMK A01 T01041062  RH  031%=      5-min Rain = 0
KLE1 092223Z 23007KT 10/M06 A3032 RMK A01 T01031063  RH  031%=      5-min Rain = 0
KLE1 092224Z 23005KT 10/M06 A3032 RMK A01 T01021063  RH  031%=      5-min Rain = 0
KLE1 092225Z 23006KT 10/M06 A3032 RMK A01 T01021060  RH  031%=      5-min Rain = 0
KLE1 092226Z 22006KT 10/M06 A3032 RMK A01 T01021061  RH  031%=      5-min Rain = 0
KLE1 092227Z 21006KT 10/M06 A3032 RMK A01 T01021061  RH  031%=      5-min Rain = 0
KLE1 092228Z 23005KT 10/M06 A3032 RMK A01 T01021059  RH  032%=      5-min Rain = 0
KLE1 092229Z 22006KT 10/M06 A3032 RMK A01 T01031057  RH  032%=      5-min Rain = 0
KLE1 092230Z 22006KT 10/M06 A3032 RMK A01 T01031060  RH  031%=      5-min Rain = 0
KLE1 092231Z 21005KT 10/M06 A3032 RMK A01 T01031060  RH  031%=      5-min Rain = 0
KLE1 092232Z 22005KT 10/M06 A3032 RMK A01 T01031060  RH  031%=      5-min Rain = 0
KLE1 092233Z 23005KT 10/M06 A3032 RMK A01 T01021059  RH  032%=      5-min Rain = 0
KLE1 092234Z 22005KT 10/M06 A3032 RMK A01 T01031058  RH  032%=      5-min Rain = 0
KLE1 092235Z 22006KT 10/M06 A3032 RMK A01 T01031058  RH  032%=      5-min Rain = 0
KLE1 092236Z 20004KT 10/M06 A3032 RMK A01 T01031059  RH  031%=      5-min Rain = 0
KLE1 092237Z 21005KT 10/M06 A3032 RMK A01 T01031058  RH  032%=      5-min Rain = 0
KLE1 092238Z 21006KT 10/M06 A3032 RMK A01 T01031057  RH  032%=      5-min Rain = 0
KLE1 092239Z 22006KT 10/M06 A3032 RMK A01 T01021058  RH  032%=      5-min Rain = 0
KLE1 092240Z 22005KT 10/M06 A3032 RMK A01 T01011056  RH  033%=      5-min Rain = 0
KLE1 092241Z 21006KT 10/M05 A3032 RMK A01 T01011054  RH  033%=      5-min Rain = 0
KLE1 092242Z 20006KT 10/M05 A3032 RMK A01 T01011054  RH  033%=      5-min Rain = 0
KLE1 092243Z 21004KT 10/M05 A3032 RMK A01 T01001054  RH  033%=      5-min Rain = 0
KLE1 092244Z 20005KT 10/M05 A3032 RMK A01 T01001053  RH  034%=      5-min Rain = 0
KLE1 092245Z 20005KT 10/M05 A3032 RMK A01 T01001054  RH  033%=      5-min Rain = 0
KLE1 092246Z 20005KT 10/M05 A3032 RMK A01 T00991054  RH  034%=      5-min Rain = 0
KLE1 092247Z 19006KT 10/M05 A3032 RMK A01 T00991054  RH  034%=      5-min Rain = 0
KLE1 092248Z 20006KT 10/M06 A3032 RMK A01 T00981055  RH  033%=      5-min Rain = 0
KLE1 092249Z 20005KT 10/M06 A3032 RMK A01 T00981056  RH  033%=      5-min Rain = 0
KLE1 092250Z 20005KT 10/M06 A3032 RMK A01 T00971056  RH  033%=      5-min Rain = 0
KLE1 092251Z 19004KT 10/M06 A3032 RMK A01 T00971056  RH  034%=      5-min Rain = 0
KLE1 092252Z 19004KT 10/M05 A3032 RMK A01 T00971054  RH  034%=      5-min Rain = 0
KLE1 092253Z 20005KT 10/M05 A3032 RMK A01 T00971054  RH  034%=      5-min Rain = 0
KLE1 092254Z 20004KT 10/M05 A3032 RMK A01 T00961054  RH  034%=      5-min Rain = 0
KLE1 092255Z 20005KT 10/M05 A3032 RMK A01 T00961053  RH  034%=      5-min Rain = 0
KLE1 092256Z 20004KT 10/M05 A3032 RMK A01 T00961053  RH  035%=      5-min Rain = 0
KLE1 092257Z 21004KT 10/M05 A3032 RMK A01 T00951053  RH  035%=      5-min Rain = 0
KLE1 092258Z 21004KT 10/M05 A3032 RMK A01 T00951053  RH  035%=      5-min Rain = 0
KLE1 092259Z 21004KT 09/M05 A3032 RMK A01 T00941053  RH  035%=      5-min Rain = 0
KLE1 092300Z 22004KT 09/M05 A3032 RMK A01 T00941053  RH  035%=      5-min Rain = 0
KLE1 092301Z 21004KT 09/M05 A3032 RMK A01 T00941052  RH  035%=      5-min Rain = 0
KLE1 092302Z 21003KT 09/M05 A3032 RMK A01 T00941053  RH  035%=      5-min Rain = 0
KLE1 092303Z 21003KT 09/M05 A3032 RMK A01 T00941053  RH  035%=      5-min Rain = 0
KLE1 092304Z 21003KT 09/M05 A3032 RMK A01 T00931053  RH  035%=      5-min Rain = 0
KLE1 092305Z 21003KT 09/M05 A3032 RMK A01 T00931053  RH  035%=      5-min Rain = 0
KLE1 092306Z 21003KT 09/M05 A3032 RMK A01 T00931053  RH  035%=      5-min Rain = 0
KLE1 092307Z 21003KT 09/M05 A3032 RMK A01 T00931052  RH  035%=      5-min Rain = 0
KLE1 092308Z 21003KT 09/M05 A3032 RMK A01 T00931052  RH  035%=      5-min Rain = 0
KLE1 092309Z 21003KT 09/M05 A3032 RMK A01 T00931053  RH  035%=      5-min Rain = 0
KLE1 092310Z 21003KT 09/M05 A3032 RMK A01 T00921053  RH  035%=      5-min Rain = 0
KLE1 092311Z 20003KT 09/M05 A3032 RMK A01 T00921053  RH  035%=      5-min Rain = 0
KLE1 092312Z 20003KT 09/M05 A3032 RMK A01 T00911053  RH  036%=      5-min Rain = 0
KLE1 092313Z 20003KT 09/M05 A3032 RMK A01 T00901053  RH  036%=      5-min Rain = 0
KLE1 092314Z 20003KT 09/M05 A3032 RMK A01 T00901052  RH  036%=      5-min Rain = 0
KLE1 092315Z 20002KT 09/M05 A3032 RMK A01 T00891052  RH  036%=      5-min Rain = 0
KLE1 092316Z 21002KT 09/M05 A3032 RMK A01 T00891052  RH  036%=      5-min Rain = 0
KLE1 092317Z 21002KT 09/M05 A3032 RMK A01 T00891051  RH  037%=      5-min Rain = 0
KLE1 092318Z 20002KT 09/M05 A3032 RMK A01 T00891051  RH  037%=      5-min Rain = 0
KLE1 092319Z 21002KT 09/M05 A3032 RMK A01 T00901050  RH  037%=      5-min Rain = 0
KLE1 092320Z 21002KT 09/M05 A3032 RMK A01 T00901050  RH  037%=      5-min Rain = 0
KLE1 092321Z 21002KT 09/M05 A3032 RMK A01 T00891050  RH  037%=      5-min Rain = 0
KLE1 092322Z 21002KT 09/M05 A3032 RMK A01 T00891050  RH  037%=      5-min Rain = 0
KLE1 092323Z 21002KT 09/M05 A3032 RMK A01 T00891050  RH  037%=      5-min Rain = 0
KLE1 092324Z 20002KT 09/M05 A3032 RMK A01 T00891050  RH  037%=      5-min Rain = 0
KLE1 092325Z 20002KT 09/M05 A3032 RMK A01 T00891050  RH  037%=      5-min Rain = 0
KLE1 092326Z 20002KT 09/M05 A3032 RMK A01 T00891050  RH  037%=      5-min Rain = 0
KLE1 092327Z 20003KT 09/M05 A3032 RMK A01 T00881049  RH  037%=      5-min Rain = 0
KLE1 092328Z 20003KT 09/M05 A3032 RMK A01 T00881049  RH  038%=      5-min Rain = 0
KLE1 092329Z 19003KT 09/M05 A3032 RMK A01 T00871049  RH  038%=      5-min Rain = 0
KLE1 092330Z 19003KT 09/M05 A3032 RMK A01 T00861049  RH  038%=      5-min Rain = 0
KLE1 092331Z 19003KT 08/M05 A3032 RMK A01 T00841049  RH  039%=      5-min Rain = 0
KLE1 092332Z 18003KT 08/M05 A3032 RMK A01 T00831048  RH  039%=      5-min Rain = 0
KLE1 092333Z 18003KT 08/M05 A3032 RMK A01 T00821047  RH  040%=      5-min Rain = 0
KLE1 092334Z 18003KT 08/M05 A3032 RMK A01 T00821047  RH  040%=      5-min Rain = 0
KLE1 092335Z 18003KT 08/M05 A3033 RMK A01 T00821047  RH  040%=      5-min Rain = 0
KLE1 092336Z 18003KT 08/M05 A3033 RMK A01 T00811047  RH  040%=      5-min Rain = 0
KLE1 092337Z 18003KT 08/M05 A3033 RMK A01 T00811047  RH  040%=      5-min Rain = 0
KLE1 092338Z 18003KT 08/M05 A3033 RMK A01 T00801047  RH  040%=      5-min Rain = 0
KLE1 092339Z 18003KT 08/M05 A3033 RMK A01 T00801047  RH  040%=      5-min Rain = 0
KLE1 092340Z 18003KT 08/M05 A3033 RMK A01 T00801046  RH  041%=      5-min Rain = 0
KLE1 092341Z 19004KT 08/M05 A3033 RMK A01 T00791046  RH  041%=      5-min Rain = 0
KLE1 092342Z 19003KT 08/M05 A3033 RMK A01 T00791046  RH  041%=      5-min Rain = 0
KLE1 092343Z 19003KT 08/M05 A3033 RMK A01 T00791046  RH  041%=      5-min Rain = 0
KLE1 092344Z 19003KT 08/M05 A3033 RMK A01 T00791046  RH  041%=      5-min Rain = 0
KLE1 092345Z 20003KT 08/M05 A3033 RMK A01 T00791046  RH  041%=      5-min Rain = 0
KLE1 092346Z 20003KT 08/M05 A3033 RMK A01 T00781046  RH  041%=      5-min Rain = 0
KLE1 092347Z 20003KT 08/M05 A3033 RMK A01 T00781046  RH  041%=      5-min Rain = 0
KLE1 092348Z 20004KT 08/M05 A3033 RMK A01 T00781046  RH  041%=      5-min Rain = 0
KLE1 092349Z 19004KT 08/M05 A3033 RMK A01 T00781046  RH  041%=      5-min Rain = 0
KLE1 092350Z 19004KT 08/M05 A3033 RMK A01 T00781046  RH  041%=      5-min Rain = 0
KLE1 092351Z 19004KT 08/M05 A3033 RMK A01 T00771046  RH  041%=      5-min Rain = 0
KLE1 092352Z 20004KT 08/M05 A3033 RMK A01 T00761046  RH  041%=      5-min Rain = 0
KLE1 092353Z 20005KT 08/M05 A3033 RMK A01 T00761046  RH  042%=      5-min Rain = 0
KLE1 092354Z 20005KT 08/M05 A3033 RMK A01 T00751046  RH  042%=      5-min Rain = 0
KLE1 092355Z 20005KT 08/M05 A3033 RMK A01 T00751046  RH  042%=      5-min Rain = 0
KLE1 092356Z 20005KT 07/M05 A3033 RMK A01 T00731046  RH  042%=      5-min Rain = 0
KLE1 092357Z 20005KT 07/M05 A3033 RMK A01 T00711046  RH  043%=      5-min Rain = 0
KLE1 092358Z 21005KT 07/M05 A3033 RMK A01 T00691046  RH  044%=      5-min Rain = 0
KLE1 092359Z 21005KT 07/M05 A3033 RMK A01 T00671045  RH  044%=      5-min Rain = 0
KLE1 100000Z 21005KT 07/M05 A3033 RMK A01 T00661045  RH  045%=      5-min Rain = 0
KLE1 100001Z 21005KT 07/M05 A3033 RMK A01 T00651045  RH  045%=      5-min Rain = 0
KLE1 100002Z 21005KT 07/M05 A3033 RMK A01 T00651045  RH  046%=      5-min Rain = 0
KLE1 100003Z 21005KT 07/M04 A3033 RMK A01 T00651044  RH  046%=      5-min Rain = 0
KLE1 100004Z 21005KT 07/M05 A3033 RMK A01 T00651045  RH  045%=      5-min Rain = 0
KLE1 100005Z 21005KT 06/M05 A3033 RMK A01 T00641046  RH  045%=      5-min Rain = 0
KLE1 100006Z 21005KT 07/M05 A3033 RMK A01 T00651047  RH  045%=      5-min Rain = 0
KLE1 100007Z 21005KT 07/M05 A3033 RMK A01 T00651047  RH  045%=      5-min Rain = 0
KLE1 100008Z 22005KT 07/M05 A3033 RMK A01 T00661047  RH  044%=      5-min Rain = 0
KLE1 100009Z 22005KT 07/M05 A3033 RMK A01 T00661047  RH  044%=      5-min Rain = 0
KLE1 100010Z 21005KT 07/M05 A3033 RMK A01 T00651047  RH  044%=      5-min Rain = 0
KLE1 100011Z 21005KT 07/M05 A3033 RMK A01 T00661047  RH  044%=      5-min Rain = 0
KLE1 100012Z 22005KT 07/M05 A3033 RMK A01 T00651047  RH  044%=      5-min Rain = 0
KLE1 100013Z 21005KT 07/M05 A3033 RMK A01 T00651047  RH  044%=      5-min Rain = 0
KLE1 100014Z 22005KT 07/M05 A3033 RMK A01 T00651047  RH  045%=      5-min Rain = 0
KLE1 100015Z 22005KT 07/M05 A3033 RMK A01 T00651046  RH  045%=      5-min Rain = 0
KLE1 100016Z 22004KT 07/M05 A3034 RMK A01 T00661046  RH  045%=      5-min Rain = 0
KLE1 100017Z 22004KT 07/M05 A3034 RMK A01 T00651047  RH  045%=      5-min Rain = 0
KLE1 100018Z 22004KT 07/M05 A3034 RMK A01 T00651047  RH  045%=      5-min Rain = 0
KLE1 100019Z 23004KT 07/M05 A3034 RMK A01 T00651047  RH  045%=      5-min Rain = 0
KLE1 100020Z 23005KT 07/M05 A3034 RMK A01 T00651047  RH  045%=      5-min Rain = 0
KLE1 100021Z 23005KT 07/M05 A3034 RMK A01 T00651047  RH  045%=      5-min Rain = 0
KLE1 100022Z 23004KT 06/M05 A3034 RMK A01 T00641047  RH  045%=      5-min Rain = 0
KLE1 100023Z 24004KT 06/M05 A3034 RMK A01 T00641046  RH  045%=      5-min Rain = 0
KLE1 100024Z 24004KT 06/M05 A3034 RMK A01 T00631046  RH  046%=      5-min Rain = 0
KLE1 100025Z 24004KT 06/M05 A3034 RMK A01 T00621046  RH  046%=      5-min Rain = 0
KLE1 100026Z 24003KT 06/M04 A3034 RMK A01 T00621044  RH  047%=      5-min Rain = 0
KLE1 100027Z 24004KT 06/M04 A3034 RMK A01 T00611043  RH  047%=      5-min Rain = 0
KLE1 100028Z 24004KT 06/M04 A3034 RMK A01 T00621042  RH  047%=      5-min Rain = 0
KLE1 100029Z 23004KT 06/M04 A3034 RMK A01 T00611043  RH  047%=      5-min Rain = 0
KLE1 100030Z 23004KT 06/M04 A3034 RMK A01 T00611043  RH  047%=      5-min Rain = 0
KLE1 100031Z 23005KT 06/M04 A3034 RMK A01 T00611042  RH  047%=      5-min Rain = 0
KLE1 100032Z 23004KT 06/M04 A3034 RMK A01 T00611043  RH  047%=      5-min Rain = 0
KLE1 100033Z 23004KT 06/M04 A3034 RMK A01 T00611043  RH  047%=      5-min Rain = 0
KLE1 100034Z 23004KT 06/M04 A3035 RMK A01 T00611043  RH  047%=      5-min Rain = 0
KLE1 100035Z 23004KT 06/M04 A3035 RMK A01 T00611044  RH  047%=      5-min Rain = 0
KLE1 100036Z 23004KT 06/M04 A3035 RMK A01 T00611043  RH  047%=      5-min Rain = 0
KLE1 100037Z 23005KT 06/M04 A3035 RMK A01 T00611043  RH  047%=      5-min Rain = 0
KLE1 100038Z 23004KT 06/M04 A3034 RMK A01 T00611043  RH  047%=      5-min Rain = 0
KLE1 100039Z 22004KT 06/M04 A3034 RMK A01 T00611044  RH  047%=      5-min Rain = 0
KLE1 100040Z 22004KT 06/M04 A3034 RMK A01 T00611044  RH  047%=      5-min Rain = 0
KLE1 100041Z 23004KT 06/M04 A3034 RMK A01 T00621044  RH  047%=      5-min Rain = 0
KLE1 100042Z 22004KT 06/M05 A3034 RMK A01 T00621045  RH  046%=      5-min Rain = 0
KLE1 100043Z 22004KT 06/M05 A3034 RMK A01 T00621045  RH  046%=      5-min Rain = 0
KLE1 100044Z 22003KT 06/M05 A3034 RMK A01 T00621045  RH  046%=      5-min Rain = 0
KLE1 100045Z 22003KT 06/M05 A3034 RMK A01 T00621045  RH  046%=      5-min Rain = 0
KLE1 100046Z 23003KT 06/M05 A3035 RMK A01 T00631045  RH  046%=      5-min Rain = 0
KLE1 100047Z 23003KT 06/M05 A3035 RMK A01 T00631045  RH  046%=      5-min Rain = 0
KLE1 100048Z 23003KT 06/M05 A3035 RMK A01 T00631045  RH  046%=      5-min Rain = 0
KLE1 100049Z 24003KT 06/M04 A3035 RMK A01 T00621044  RH  046%=      5-min Rain = 0
KLE1 100050Z 24003KT 06/M04 A3035 RMK A01 T00621044  RH  047%=      5-min Rain = 0
KLE1 100051Z 24003KT 06/M04 A3035 RMK A01 T00621043  RH  047%=      5-min Rain = 0
KLE1 100052Z 24003KT 06/M04 A3035 RMK A01 T00611043  RH  047%=      5-min Rain = 0
KLE1 100053Z 25003KT 06/M04 A3035 RMK A01 T00601043  RH  048%=      5-min Rain = 0
KLE1 100054Z 25003KT 06/M04 A3035 RMK A01 T00601042  RH  048%=      5-min Rain = 0
KLE1 100055Z 25003KT 06/M04 A3035 RMK A01 T00591042  RH  048%=      5-min Rain = 0
KLE1 100056Z 26003KT 06/M04 A3035 RMK A01 T00591042  RH  048%=      5-min Rain = 0
KLE1 100057Z 25003KT 06/M04 A3035 RMK A01 T00581042  RH  049%=      5-min Rain = 0
KLE1 100058Z 25003KT 06/M04 A3035 RMK A01 T00571042  RH  049%=      5-min Rain = 0
KLE1 100059Z 25003KT 06/M04 A3035 RMK A01 T00571041  RH  049%=      5-min Rain = 0
KLE1 100100Z 25003KT 06/M04 A3035 RMK A01 T00561042  RH  049%=      5-min Rain = 0
KLE1 100101Z 25003KT 06/M04 A3035 RMK A01 T00551042  RH  049%=      5-min Rain = 0
KLE1 100102Z 25003KT 06/M04 A3035 RMK A01 T00561042  RH  049%=      5-min Rain = 0
KLE1 100103Z 25003KT 06/M04 A3035 RMK A01 T00561043  RH  049%=      5-min Rain = 0
KLE1 100104Z 25003KT 06/M04 A3035 RMK A01 T00561044  RH  049%=      5-min Rain = 0
KLE1 100105Z 25003KT 06/M04 A3035 RMK A01 T00561043  RH  049%=      5-min Rain = 0
KLE1 100106Z 25003KT 06/M04 A3035 RMK A01 T00561043  RH  049%=      5-min Rain = 0
KLE1 100107Z 25003KT 06/M04 A3035 RMK A01 T00561044  RH  049%=      5-min Rain = 0
KLE1 100108Z 25003KT 06/M04 A3035 RMK A01 T00561044  RH  049%=      5-min Rain = 0
KLE1 100109Z 25003KT 06/M04 A3035 RMK A01 T00561044  RH  049%=      5-min Rain = 0
KLE1 100110Z 25003KT 06/M04 A3035 RMK A01 T00561043  RH  049%=      5-min Rain = 0
KLE1 100111Z 25003KT 06/M04 A3035 RMK A01 T00561043  RH  049%=      5-min Rain = 0
KLE1 100112Z 26003KT 06/M04 A3035 RMK A01 T00551043  RH  049%=      5-min Rain = 0
KLE1 100113Z 26003KT 06/M04 A3035 RMK A01 T00551043  RH  049%=      5-min Rain = 0
KLE1 100114Z 26003KT 06/M04 A3035 RMK A01 T00551043  RH  049%=      5-min Rain = 0
KLE1 100115Z 26003KT 06/M04 A3035 RMK A01 T00551043  RH  049%=      5-min Rain = 0
KLE1 100116Z 26003KT 06/M04 A3035 RMK A01 T00551043  RH  049%=      5-min Rain = 0
KLE1 100117Z 26003KT 06/M04 A3035 RMK A01 T00551043  RH  049%=      5-min Rain = 0
KLE1 100118Z 26003KT 06/M04 A3035 RMK A01 T00551043  RH  049%=      5-min Rain = 0
KLE1 100119Z 26003KT 06/M04 A3035 RMK A01 T00551044  RH  049%=      5-min Rain = 0
KLE1 100120Z 26003KT 06/M04 A3035 RMK A01 T00551044  RH  049%=      5-min Rain = 0
KLE1 100121Z 27003KT 06/M04 A3035 RMK A01 T00561043  RH  049%=      5-min Rain = 0
KLE1 100122Z 27003KT 06/M04 A3035 RMK A01 T00561043  RH  049%=      5-min Rain = 0
KLE1 100123Z 28003KT 06/M04 A3035 RMK A01 T00561044  RH  049%=      5-min Rain = 0
KLE1 100124Z 29003KT 06/M04 A3035 RMK A01 T00571044  RH  048%=      5-min Rain = 0
KLE1 100125Z 29003KT 06/M04 A3035 RMK A01 T00571044  RH  048%=      5-min Rain = 0
KLE1 100126Z 29003KT 06/M04 A3035 RMK A01 T00571044  RH  048%=      5-min Rain = 0
KLE1 100127Z 29003KT 06/M04 A3035 RMK A01 T00581044  RH  048%=      5-min Rain = 0
KLE1 100128Z 29003KT 06/M04 A3035 RMK A01 T00571044  RH  048%=      5-min Rain = 0
KLE1 100129Z 29003KT 06/M04 A3035 RMK A01 T00571044  RH  048%=      5-min Rain = 0
KLE1 100130Z 29003KT 06/M05 A3035 RMK A01 T00571045  RH  048%=      5-min Rain = 0
KLE1 100131Z 29003KT 06/M05 A3035 RMK A01 T00551045  RH  048%=      5-min Rain = 0
KLE1 100132Z 29003KT 05/M05 A3035 RMK A01 T00541045  RH  049%=      5-min Rain = 0
KLE1 100133Z 30003KT 05/M05 A3035 RMK A01 T00531045  RH  049%=      5-min Rain = 0
KLE1 100134Z 29003KT 05/M04 A3035 RMK A01 T00511044  RH  050%=      5-min Rain = 0
KLE1 100135Z 28003KT 05/M04 A3035 RMK A01 T00501044  RH  050%=      5-min Rain = 0
KLE1 100136Z 28003KT 05/M04 A3035 RMK A01 T00501044  RH  051%=      5-min Rain = 0
KLE1 100137Z 28002KT 05/M04 A3035 RMK A01 T00501044  RH  051%=      5-min Rain = 0
KLE1 100138Z 28003KT 05/M04 A3035 RMK A01 T00511043  RH  051%=      5-min Rain = 0
KLE1 100139Z 27003KT 05/M04 A3035 RMK A01 T00511043  RH  050%=      5-min Rain = 0
KLE1 100140Z 27003KT 05/M04 A3035 RMK A01 T00511043  RH  050%=      5-min Rain = 0
KLE1 100141Z 27003KT 05/M04 A3035 RMK A01 T00511043  RH  050%=      5-min Rain = 0
KLE1 100142Z 27003KT 05/M04 A3035 RMK A01 T00521043  RH  050%=      5-min Rain = 0
KLE1 100143Z 28003KT 05/M04 A3035 RMK A01 T00521043  RH  051%=      5-min Rain = 0
KLE1 100144Z 28003KT 05/M04 A3035 RMK A01 T00521042  RH  051%=      5-min Rain = 0
KLE1 100145Z 28003KT 05/M04 A3035 RMK A01 T00521042  RH  051%=      5-min Rain = 0
KLE1 100146Z 28004KT 05/M04 A3035 RMK A01 T00521042  RH  051%=      5-min Rain = 0
KLE1 100147Z 28004KT 05/M04 A3035 RMK A01 T00521041  RH  051%=      5-min Rain = 0
KLE1 100148Z 28003KT 05/M04 A3035 RMK A01 T00521041  RH  051%=      5-min Rain = 0
KLE1 100149Z 28004KT 05/M04 A3035 RMK A01 T00511042  RH  051%=      5-min Rain = 0
KLE1 100150Z 28004KT 05/M04 A3035 RMK A01 T00491042  RH  052%=      5-min Rain = 0
KLE1 100151Z 28004KT 05/M04 A3035 RMK A01 T00491041  RH  052%=      5-min Rain = 0
KLE1 100152Z 29004KT 05/M04 A3035 RMK A01 T00481041  RH  052%=      5-min Rain = 0
KLE1 100153Z 29004KT 05/M04 A3035 RMK A01 T00481041  RH  053%=      5-min Rain = 0
KLE1 100154Z 29005KT 05/M04 A3035 RMK A01 T00461042  RH  053%=      5-min Rain = 0
KLE1 100155Z 28005KT 05/M04 A3035 RMK A01 T00451042  RH  053%=      5-min Rain = 0
KLE1 100156Z 28005KT 04/M04 A3035 RMK A01 T00441041  RH  054%=      5-min Rain = 0
KLE1 100157Z 28005KT 04/M04 A3035 RMK A01 T00421040  RH  055%=      5-min Rain = 0
KLE1 100158Z 28005KT 04/M04 A3035 RMK A01 T00401039  RH  056%=      5-min Rain = 0
KLE1 100159Z 28005KT 04/M04 A3035 RMK A01 T00381039  RH  057%=      5-min Rain = 0
KLE1 100200Z 28005KT 04/M04 A3035 RMK A01 T00371038  RH  058%=      5-min Rain = 0
KLE1 100201Z 28005KT 04/M04 A3035 RMK A01 T00361038  RH  059%=      5-min Rain = 0
KLE1 100202Z 28005KT 03/M04 A3035 RMK A01 T00341038  RH  059%=      5-min Rain = 0
KLE1 100203Z 28005KT 03/M04 A3035 RMK A01 T00331036  RH  061%=      5-min Rain = 0
KLE1 100204Z 28005KT 03/M04 A3036 RMK A01 T00311036  RH  061%=      5-min Rain = 0
KLE1 100205Z 28005KT 03/M04 A3036 RMK A01 T00301035  RH  062%=      5-min Rain = 0
KLE1 100206Z 28005KT 03/M03 A3036 RMK A01 T00301034  RH  063%=      5-min Rain = 0
KLE1 100207Z 28005KT 03/M03 A3036 RMK A01 T00301033  RH  064%=      5-min Rain = 0
KLE1 100208Z 28005KT 03/M03 A3036 RMK A01 T00291032  RH  064%=      5-min Rain = 0
KLE1 100209Z 28005KT 03/M03 A3036 RMK A01 T00281031  RH  065%=      5-min Rain = 0
KLE1 100210Z 28005KT 03/M03 A3035 RMK A01 T00271030  RH  066%=      5-min Rain = 0
KLE1 100211Z 28005KT 03/M03 A3035 RMK A01 T00271030  RH  066%=      5-min Rain = 0
KLE1 100212Z 28006KT 03/M03 A3035 RMK A01 T00261029  RH  067%=      5-min Rain = 0
KLE1 100213Z 29006KT 03/M03 A3036 RMK A01 T00251029  RH  067%=      5-min Rain = 0
KLE1 100214Z 29006KT 02/M03 A3036 RMK A01 T00241029  RH  068%=      5-min Rain = 0
KLE1 100215Z 29006KT 02/M03 A3036 RMK A01 T00231029  RH  068%=      5-min Rain = 0
KLE1 100216Z 29006KT 02/M03 A3036 RMK A01 T00221030  RH  069%=      5-min Rain = 0
KLE1 100217Z 29006KT 02/M03 A3036 RMK A01 T00221030  RH  069%=      5-min Rain = 0
KLE1 100218Z 29006KT 02/M03 A3036 RMK A01 T00211030  RH  069%=      5-min Rain = 0
KLE1 100219Z 29006KT 02/M03 A3036 RMK A01 T00201031  RH  069%=      5-min Rain = 0
KLE1 100220Z 29006KT 02/M03 A3036 RMK A01 T00191031  RH  069%=      5-min Rain = 0
KLE1 100221Z 30006KT 02/M03 A3036 RMK A01 T00191031  RH  070%=      5-min Rain = 0
KLE1 100222Z 30007KT 02/M03 A3036 RMK A01 T00181031  RH  070%=      5-min Rain = 0
KLE1 100223Z 30007KT 02/M03 A3036 RMK A01 T00191031  RH  069%=      5-min Rain = 0
KLE1 100224Z 30007KT 02/M03 A3036 RMK A01 T00181032  RH  069%=      5-min Rain = 0
KLE1 100225Z 30007KT 02/M03 A3036 RMK A01 T00191033  RH  069%=      5-min Rain = 0
KLE1 100226Z 30007KT 02/M03 A3036 RMK A01 T00181033  RH  069%=      5-min Rain = 0
KLE1 100227Z 30007KT 02/M03 A3036 RMK A01 T00191034  RH  068%=      5-min Rain = 0
KLE1 100228Z 30007KT 02/M04 A3036 RMK A01 T00191035  RH  068%=      5-min Rain = 0
KLE1 100229Z 30006KT 02/M04 A3036 RMK A01 T00191036  RH  067%=      5-min Rain = 0
KLE1 100230Z 30007KT 02/M04 A3036 RMK A01 T00191038  RH  066%=      5-min Rain = 0
KLE1 100231Z 30007KT 02/M04 A3036 RMK A01 T00191038  RH  066%=      5-min Rain = 0
KLE1 100232Z 30007KT 02/M04 A3036 RMK A01 T00201038  RH  065%=      5-min Rain = 0
KLE1 100233Z 30007KT 02/M04 A3036 RMK A01 T00201039  RH  065%=      5-min Rain = 0
KLE1 100234Z 29007KT 02/M04 A3036 RMK A01 T00211038  RH  065%=      5-min Rain = 0
KLE1 100235Z 29007KT 02/M04 A3036 RMK A01 T00221037  RH  065%=      5-min Rain = 0
KLE1 100236Z 29007KT 02/M04 A3036 RMK A01 T00221038  RH  065%=      5-min Rain = 0
KLE1 100237Z 29007KT 02/M04 A3036 RMK A01 T00231037  RH  064%=      5-min Rain = 0
KLE1 100238Z 29007KT 02/M04 A3036 RMK A01 T00241037  RH  064%=      5-min Rain = 0
KLE1 100239Z 30006KT 02/M04 A3036 RMK A01 T00231037  RH  064%=      5-min Rain = 0
KLE1 100240Z 30006KT 02/M04 A3036 RMK A01 T00221039  RH  064%=      5-min Rain = 0
KLE1 100241Z 30006KT 02/M04 A3036 RMK A01 T00211039  RH  064%=      5-min Rain = 0
KLE1 100242Z 30006KT 02/M04 A3036 RMK A01 T00191040  RH  065%=      5-min Rain = 0
KLE1 100243Z 30006KT 02/M04 A3036 RMK A01 T00181041  RH  065%=      5-min Rain = 0
KLE1 100244Z 30006KT 02/M04 A3036 RMK A01 T00171041  RH  066%=      5-min Rain = 0
KLE1 100245Z 30006KT 02/M04 A3036 RMK A01 T00161041  RH  066%=      5-min Rain = 0
KLE1 100246Z 30007KT 02/M04 A3036 RMK A01 T00151041  RH  066%=      5-min Rain = 0
KLE1 100247Z 29007KT 02/M04 A3036 RMK A01 T00151042  RH  066%=      5-min Rain = 0
KLE1 100248Z 29007KT 01/M04 A3036 RMK A01 T00131042  RH  066%=      5-min Rain = 0
KLE1 100249Z 29006KT 01/M04 A3036 RMK A01 T00131042  RH  067%=      5-min Rain = 0
KLE1 100250Z 29007KT 01/M04 A3036 RMK A01 T00121042  RH  067%=      5-min Rain = 0
KLE1 100251Z 28007KT 01/M04 A3036 RMK A01 T00111042  RH  068%=      5-min Rain = 0
KLE1 100252Z 28007KT 01/M04 A3036 RMK A01 T00101043  RH  068%=      5-min Rain = 0
KLE1 100253Z 28007KT 01/M04 A3036 RMK A01 T00101043  RH  068%=      5-min Rain = 0
KLE1 100254Z 28007KT 01/M04 A3036 RMK A01 T00091042  RH  069%=      5-min Rain = 0
KLE1 100255Z 28006KT 01/M04 A3036 RMK A01 T00081042  RH  069%=      5-min Rain = 0
KLE1 100256Z 28006KT 01/M04 A3036 RMK A01 T00071042  RH  070%=      5-min Rain = 0
KLE1 100257Z 28006KT 01/M04 A3036 RMK A01 T00071041  RH  070%=      5-min Rain = 0
KLE1 100258Z 28006KT 01/M04 A3036 RMK A01 T00081041  RH  070%=      5-min Rain = 0
KLE1 100259Z 28006KT 01/M04 A3036 RMK A01 T00081041  RH  070%=      5-min Rain = 0
KLE1 100300Z 27006KT 01/M04 A3036 RMK A01 T00081040  RH  070%=      5-min Rain = 0
KLE1 100301Z 28005KT 01/M04 A3036 RMK A01 T00091040  RH  070%=      5-min Rain = 0
KLE1 100302Z 28005KT 01/M04 A3036 RMK A01 T00091039  RH  070%=      5-min Rain = 0
KLE1 100303Z 28005KT 01/M04 A3036 RMK A01 T00101039  RH  070%=      5-min Rain = 0
KLE1 100304Z 28005KT 01/M04 A3036 RMK A01 T00101038  RH  070%=      5-min Rain = 0
KLE1 100305Z 28005KT 01/M04 A3036 RMK A01 T00101037  RH  071%=      5-min Rain = 0
KLE1 100306Z 28005KT 01/M04 A3036 RMK A01 T00091038  RH  071%=      5-min Rain = 0
KLE1 100307Z 28006KT 01/M04 A3036 RMK A01 T00091038  RH  071%=      5-min Rain = 0
KLE1 100308Z 28005KT 01/M04 A3036 RMK A01 T00081038  RH  071%=      5-min Rain = 0
KLE1 100309Z 28005KT 01/M04 A3036 RMK A01 T00081038  RH  072%=      5-min Rain = 0
KLE1 100310Z 28005KT 01/M04 A3036 RMK A01 T00071038  RH  072%=      5-min Rain = 0
KLE1 100311Z 28005KT 01/M04 A3036 RMK A01 T00071037  RH  072%=      5-min Rain = 0
KLE1 100312Z 28005KT 01/M04 A3036 RMK A01 T00071038  RH  072%=      5-min Rain = 0
KLE1 100313Z 28005KT 01/M04 A3036 RMK A01 T00061037  RH  073%=      5-min Rain = 0
KLE1 100314Z 28006KT 01/M04 A3036 RMK A01 T00061037  RH  073%=      5-min Rain = 0
KLE1 100315Z 28006KT 01/M04 A3036 RMK A01 T00061037  RH  073%=      5-min Rain = 0
KLE1 100316Z 28006KT 01/M04 A3036 RMK A01 T00051037  RH  074%=      5-min Rain = 0
KLE1 100317Z 28006KT 00/M04 A3036 RMK A01 T00041036  RH  074%=      5-min Rain = 0
KLE1 100318Z 28006KT 00/M04 A3036 RMK A01 T00041036  RH  075%=      5-min Rain = 0
KLE1 100319Z 29005KT 00/M04 A3036 RMK A01 T00031036  RH  075%=      5-min Rain = 0
KLE1 100320Z 29005KT 00/M04 A3036 RMK A01 T00031036  RH  075%=      5-min Rain = 0
KLE1 100321Z 28006KT 00/M04 A3036 RMK A01 T00031036  RH  075%=      5-min Rain = 0
KLE1 100322Z 28006KT 00/M04 A3036 RMK A01 T00031037  RH  075%=      5-min Rain = 0
KLE1 100323Z 28006KT 00/M04 A3036 RMK A01 T00031036  RH  075%=      5-min Rain = 0
KLE1 100324Z 28005KT 00/M04 A3036 RMK A01 T00021037  RH  075%=      5-min Rain = 0
KLE1 100325Z 27005KT 00/M04 A3036 RMK A01 T00011037  RH  075%=      5-min Rain = 0
KLE1 100326Z 27006KT 00/04 A3036 RMK A01 T00000-37  RH  076%=      5-min Rain = 0
KLE1 100327Z 27006KT 00/04 A3036 RMK A01 T00-00-37  RH  076%=      5-min Rain = 0
KLE1 100328Z 26005KT M00/M04 A3036 RMK A01 T10011036  RH  077%=      5-min Rain = 0
KLE1 100329Z 26006KT M00/M04 A3035 RMK A01 T10021036  RH  077%=      5-min Rain = 0
KLE1 100330Z 26007KT M00/M04 A3035 RMK A01 T10031037  RH  078%=      5-min Rain = 0
KLE1 100331Z 26008KT M01/M04 A3035 RMK A01 T10051038  RH  079%=      5-min Rain = 0
KLE1 100332Z 27008KT M01/M04 A3035 RMK A01 T10061037  RH  079%=      5-min Rain = 0
KLE1 100333Z 27009KT M01/M04 A3035 RMK A01 T10061036  RH  080%=      5-min Rain = 0
KLE1 100334Z 27008KT M01/M04 A3036 RMK A01 T10051036  RH  080%=      5-min Rain = 0
KLE1 100335Z 28008KT M00/M04 A3036 RMK A01 T10041035  RH  079%=      5-min Rain = 0
KLE1 100336Z 28007KT M00/M04 A3036 RMK A01 T10031036  RH  079%=      5-min Rain = 0
KLE1 100337Z 28007KT M00/M04 A3036 RMK A01 T10011035  RH  078%=      5-min Rain = 0
KLE1 100338Z 28006KT M00/M04 A3036 RMK A01 T10011036  RH  077%=      5-min Rain = 0
KLE1 100339Z 28006KT M00/M04 A3036 RMK A01 T10011036  RH  077%=      5-min Rain = 0
KLE1 100340Z 28007KT 00/04 A3036 RMK A01 T00-00-37  RH  077%=      5-min Rain = 0
KLE1 100341Z 28006KT 00/04 A3036 RMK A01 T00-00-37  RH  076%=      5-min Rain = 0
KLE1 100342Z 28006KT 00/04 A3036 RMK A01 T00-00-37  RH  076%=      5-min Rain = 0
KLE1 100343Z 29006KT M00/M04 A3036 RMK A01 T10011037  RH  076%=      5-min Rain = 0
KLE1 100344Z 29006KT M00/M04 A3036 RMK A01 T10021038  RH  077%=      5-min Rain = 0
KLE1 100345Z 30006KT M00/M04 A3036 RMK A01 T10021037  RH  077%=      5-min Rain = 0
KLE1 100346Z 29006KT M00/M04 A3036 RMK A01 T10011037  RH  077%=      5-min Rain = 0
KLE1 100347Z 29007KT M00/M04 A3036 RMK A01 T10011037  RH  077%=      5-min Rain = 0
KLE1 100348Z 28006KT M00/M04 A3036 RMK A01 T10011037  RH  077%=      5-min Rain = 0
KLE1 100349Z 29006KT M00/M04 A3036 RMK A01 T10011037  RH  077%=      5-min Rain = 0
KLE1 100350Z 29007KT M00/M04 A3036 RMK A01 T10021037  RH  077%=      5-min Rain = 0
KLE1 100351Z 29007KT M00/M04 A3036 RMK A01 T10031037  RH  077%=      5-min Rain = 0
KLE1 100352Z 30007KT M00/M04 A3036 RMK A01 T10041038  RH  078%=      5-min Rain = 0
KLE1 100353Z 29007KT M00/M04 A3036 RMK A01 T10041037  RH  078%=      5-min Rain = 0
KLE1 100354Z 30007KT M00/M04 A3036 RMK A01 T10041037  RH  078%=      5-min Rain = 0
KLE1 100355Z 30007KT M00/M04 A3036 RMK A01 T10041037  RH  078%=      5-min Rain = 0
KLE1 100356Z 30007KT M00/M04 A3036 RMK A01 T10041037  RH  079%=      5-min Rain = 0
KLE1 100357Z 31007KT M00/M04 A3036 RMK A01 T10041036  RH  079%=      5-min Rain = 0
KLE1 100358Z 30007KT M00/M04 A3036 RMK A01 T10041036  RH  079%=      5-min Rain = 0
KLE1 100359Z 30007KT M00/M04 A3036 RMK A01 T10041036  RH  079%=      5-min Rain = 0
KLE1 100400Z 29007KT M00/M04 A3036 RMK A01 T10041037  RH  079%=      5-min Rain = 0
KLE1 100401Z 29007KT M00/M04 A3036 RMK A01 T10041037  RH  078%=      5-min Rain = 0
KLE1 100402Z 29008KT M00/M04 A3036 RMK A01 T10041037  RH  078%=      5-min Rain = 0
KLE1 100403Z 29008KT M00/M04 A3036 RMK A01 T10041037  RH  078%=      5-min Rain = 0
KLE1 100404Z 30008KT M00/M04 A3036 RMK A01 T10031037  RH  078%=      5-min Rain = 0
KLE1 100405Z 30008KT M00/M04 A3036 RMK A01 T10041037  RH  078%=      5-min Rain = 0
KLE1 100406Z 30009KT M01/M04 A3036 RMK A01 T10051038  RH  079%=      5-min Rain = 0
KLE1 100407Z 30009KT M01/M04 A3036 RMK A01 T10061038  RH  079%=      5-min Rain = 0
KLE1 100408Z 31009KT M01/M04 A3036 RMK A01 T10061037  RH  079%=      5-min Rain = 0
KLE1 100409Z 31009KT M01/M04 A3036 RMK A01 T10061037  RH  080%=      5-min Rain = 0
KLE1 100410Z 30009KT M01/M04 A3036 RMK A01 T10061036  RH  080%=      5-min Rain = 0
KLE1 100411Z 30010KT M01/M04 A3036 RMK A01 T10051036  RH  080%=      5-min Rain = 0
KLE1 100412Z 30010KT M01/M04 A3036 RMK A01 T10051036  RH  080%=      5-min Rain = 0
KLE1 100413Z 29009KT M01/M04 A3036 RMK A01 T10051036  RH  079%=      5-min Rain = 0
KLE1 100414Z 29009KT M00/M04 A3036 RMK A01 T10041036  RH  079%=      5-min Rain = 0
KLE1 100415Z 29009KT M00/M04 A3036 RMK A01 T10041036  RH  079%=      5-min Rain = 0
KLE1 100416Z 29010KT M00/M04 A3036 RMK A01 T10041036  RH  079%=      5-min Rain = 0
KLE1 100417Z 29010KT M00/M04 A3036 RMK A01 T10041035  RH  079%=      5-min Rain = 0
KLE1 100418Z 29010KT M00/M04 A3036 RMK A01 T10041035  RH  079%=      5-min Rain = 0
KLE1 100419Z 29010KT M00/M03 A3036 RMK A01 T10031034  RH  079%=      5-min Rain = 0
KLE1 100420Z 29009KT M00/M03 A3036 RMK A01 T10011033  RH  079%=      5-min Rain = 0
KLE1 100421Z 29010KT 00/03 A3036 RMK A01 T00000-34  RH  078%=      5-min Rain = 0
KLE1 100422Z 29011KT 00/M03 A3036 RMK A01 T00011034  RH  078%=      5-min Rain = 0
KLE1 100423Z 29010KT 00/M04 A3036 RMK A01 T00011035  RH  077%=      5-min Rain = 0
KLE1 100424Z 29010KT 00/M04 A3036 RMK A01 T00011035  RH  077%=      5-min Rain = 0
KLE1 100425Z 29010KT 00/M03 A3036 RMK A01 T00021034  RH  077%=      5-min Rain = 0
KLE1 100426Z 29011KT 00/M04 A3036 RMK A01 T00021035  RH  076%=      5-min Rain = 0
KLE1 100427Z 29011KT 00/M04 A3036 RMK A01 T00021035  RH  076%=      5-min Rain = 0
KLE1 100428Z 29011KT 00/M04 A3036 RMK A01 T00021035  RH  076%=      5-min Rain = 0
KLE1 100429Z 29011KT 00/M04 A3036 RMK A01 T00021036  RH  076%=      5-min Rain = 0
KLE1 100430Z 29011KT 00/M04 A3036 RMK A01 T00021036  RH  076%=      5-min Rain = 0
KLE1 100431Z 29011KT 00/M04 A3036 RMK A01 T00011036  RH  076%=      5-min Rain = 0
KLE1 100432Z 28011KT 00/04 A3036 RMK A01 T00000-37  RH  076%=      5-min Rain = 0
KLE1 100433Z 28011KT 00/04 A3036 RMK A01 T00000-37  RH  076%=      5-min Rain = 0
KLE1 100434Z 28010KT 00/M04 A3036 RMK A01 T00011037  RH  075%=      5-min Rain = 0
KLE1 100435Z 28010KT 00/M04 A3036 RMK A01 T00011038  RH  075%=      5-min Rain = 0
KLE1 100436Z 28010KT 00/04 A3036 RMK A01 T00-00-38  RH  076%=      5-min Rain = 0
KLE1 100437Z 28011KT M00/M04 A3036 RMK A01 T10011038  RH  076%=      5-min Rain = 0
KLE1 100438Z 28011KT M00/M04 A3036 RMK A01 T10021038  RH  077%=      5-min Rain = 0
KLE1 100439Z 28011KT M00/M04 A3036 RMK A01 T10021037  RH  077%=      5-min Rain = 0
KLE1 100440Z 28011KT M00/M04 A3036 RMK A01 T10031037  RH  077%=      5-min Rain = 0
KLE1 100441Z 29010KT M00/M04 A3036 RMK A01 T10021037  RH  077%=      5-min Rain = 0
KLE1 100442Z 29010KT M00/M04 A3036 RMK A01 T10031038  RH  077%=      5-min Rain = 0
KLE1 100443Z 29010KT M00/M04 A3036 RMK A01 T10031038  RH  077%=      5-min Rain = 0
KLE1 100444Z 29010KT M00/M04 A3036 RMK A01 T10031038  RH  077%=      5-min Rain = 0
KLE1 100445Z 29011KT M00/M04 A3036 RMK A01 T10031038  RH  077%=      5-min Rain = 0
KLE1 100446Z 29011KT M00/M04 A3036 RMK A01 T10031038  RH  077%=      5-min Rain = 0
KLE1 100447Z 29011KT M00/M04 A3036 RMK A01 T10031039  RH  077%=      5-min Rain = 0
KLE1 100448Z 30010KT M00/M04 A3036 RMK A01 T10031039  RH  076%=      5-min Rain = 0
KLE1 100449Z 30010KT M00/M04 A3036 RMK A01 T10021039  RH  076%=      5-min Rain = 0
KLE1 100450Z 29010KT M00/M04 A3036 RMK A01 T10021039  RH  076%=      5-min Rain = 0
KLE1 100451Z 29010KT M00/M04 A3036 RMK A01 T10031040  RH  076%=      5-min Rain = 0
KLE1 100452Z 29010KT M00/M04 A3036 RMK A01 T10031040  RH  076%=      5-min Rain = 0
KLE1 100453Z 30010KT M00/M04 A3036 RMK A01 T10041041  RH  076%=      5-min Rain = 0
KLE1 100454Z 29011KT M00/M04 A3036 RMK A01 T10041040  RH  076%=      5-min Rain = 0
KLE1 100455Z 29011KT M00/M04 A3036 RMK A01 T10041040  RH  076%=      5-min Rain = 0
KLE1 100456Z 29011KT M00/M04 A3036 RMK A01 T10031040  RH  076%=      5-min Rain = 0
KLE1 100457Z 29012KT M00/M04 A3036 RMK A01 T10021039  RH  076%=      5-min Rain = 0
KLE1 100458Z 29011KT 00/04 A3036 RMK A01 T00-00-39  RH  075%=      5-min Rain = 0
KLE1 100459Z 29011KT 00/M04 A3036 RMK A01 T00011039  RH  074%=      5-min Rain = 0
KLE1 100500Z 29011KT 00/M04 A3036 RMK A01 T00021040  RH  074%=      5-min Rain = 0
KLE1 100501Z 29010KT 00/M04 A3036 RMK A01 T00021041  RH  073%=      5-min Rain = 0
KLE1 100502Z 29009KT 00/M04 A3036 RMK A01 T00011042  RH  073%=      5-min Rain = 0
KLE1 100503Z 29010KT 00/04 A3036 RMK A01 T00000-42  RH  073%=      5-min Rain = 0
KLE1 100504Z 28010KT M00/M04 A3036 RMK A01 T10011043  RH  073%=      5-min Rain = 0
KLE1 100505Z 28010KT M00/M04 A3036 RMK A01 T10011043  RH  073%=      5-min Rain = 0
KLE1 100506Z 28010KT M00/M04 A3036 RMK A01 T10011043  RH  073%=      5-min Rain = 0
KLE1 100507Z 29011KT M00/M04 A3036 RMK A01 T10011043  RH  073%=      5-min Rain = 0
KLE1 100508Z 29011KT M00/M04 A3036 RMK A01 T10011043  RH  073%=      5-min Rain = 0
KLE1 100509Z 29011KT M00/M04 A3036 RMK A01 T10011043  RH  073%=      5-min Rain = 0
KLE1 100510Z 29010KT M00/M04 A3036 RMK A01 T10021043  RH  073%=      5-min Rain = 0
KLE1 100511Z 29010KT M00/M04 A3036 RMK A01 T10031044  RH  074%=      5-min Rain = 0
KLE1 100512Z 29010KT M00/M04 A3036 RMK A01 T10031043  RH  074%=      5-min Rain = 0
KLE1 100513Z 29010KT M00/M04 A3036 RMK A01 T10041043  RH  075%=      5-min Rain = 0
KLE1 100514Z 29011KT M01/M04 A3036 RMK A01 T10051044  RH  075%=      5-min Rain = 0
KLE1 100515Z 29011KT M01/M04 A3036 RMK A01 T10051044  RH  075%=      5-min Rain = 0
KLE1 100516Z 29011KT M01/M04 A3036 RMK A01 T10051044  RH  075%=      5-min Rain = 0
KLE1 100517Z 29010KT M01/M04 A3036 RMK A01 T10051044  RH  075%=      5-min Rain = 0
KLE1 100518Z 29011KT M01/M05 A3036 RMK A01 T10061045  RH  075%=      5-min Rain = 0
KLE1 100519Z 29010KT M01/M05 A3036 RMK A01 T10061045  RH  075%=      5-min Rain = 0
KLE1 100520Z 29010KT M01/M05 A3036 RMK A01 T10061045  RH  075%=      5-min Rain = 0
KLE1 100521Z 29010KT M01/M05 A3036 RMK A01 T10061045  RH  075%=      5-min Rain = 0
KLE1 100522Z 29010KT M01/M05 A3036 RMK A01 T10071045  RH  075%=      5-min Rain = 0
KLE1 100523Z 29010KT M01/M05 A3036 RMK A01 T10071046  RH  075%=      5-min Rain = 0
KLE1 100524Z 29010KT M01/M05 A3036 RMK A01 T10071046  RH  075%=      5-min Rain = 0
KLE1 100525Z 29010KT M01/M05 A3036 RMK A01 T10081046  RH  075%=      5-min Rain = 0
KLE1 100526Z 29010KT M01/M05 A3036 RMK A01 T10081047  RH  075%=      5-min Rain = 0
KLE1 100527Z 29010KT M01/M05 A3036 RMK A01 T10081047  RH  075%=      5-min Rain = 0
KLE1 100528Z 29010KT M01/M05 A3036 RMK A01 T10091047  RH  075%=      5-min Rain = 0
KLE1 100529Z 29011KT M01/M05 A3036 RMK A01 T10081048  RH  075%=      5-min Rain = 0
KLE1 100530Z 29011KT M01/M05 A3036 RMK A01 T10081048  RH  074%=      5-min Rain = 0
KLE1 100531Z 29011KT M01/M05 A3036 RMK A01 T10081048  RH  074%=      5-min Rain = 0
KLE1 100532Z 29011KT M01/M05 A3036 RMK A01 T10081048  RH  075%=      5-min Rain = 0
KLE1 100533Z 29011KT M01/M05 A3036 RMK A01 T10091048  RH  075%=      5-min Rain = 0
KLE1 100534Z 29011KT M01/M05 A3036 RMK A01 T10101047  RH  076%=      5-min Rain = 0
KLE1 100535Z 29011KT M01/M05 A3036 RMK A01 T10101047  RH  076%=      5-min Rain = 0
KLE1 100536Z 29011KT M01/M05 A3036 RMK A01 T10091047  RH  075%=      5-min Rain = 0
KLE1 100537Z 29010KT M01/M05 A3036 RMK A01 T10081047  RH  075%=      5-min Rain = 0
KLE1 100538Z 29010KT M01/M05 A3036 RMK A01 T10081047  RH  075%=      5-min Rain = 0
KLE1 100539Z 29010KT M01/M05 A3036 RMK A01 T10081047  RH  074%=      5-min Rain = 0
KLE1 100540Z 28009KT M01/M05 A3036 RMK A01 T10081048  RH  075%=      5-min Rain = 0
KLE1 100541Z 28009KT M01/M05 A3036 RMK A01 T10081048  RH  075%=      5-min Rain = 0
KLE1 100542Z 28009KT M01/M05 A3036 RMK A01 T10091048  RH  075%=      5-min Rain = 0
KLE1 100543Z 28009KT M01/M05 A3036 RMK A01 T10101048  RH  075%=      5-min Rain = 0
KLE1 100544Z 28009KT M01/M05 A3036 RMK A01 T10101048  RH  076%=      5-min Rain = 0
KLE1 100545Z 28009KT M01/M05 A3036 RMK A01 T10111048  RH  076%=      5-min Rain = 0
KLE1 100546Z 28010KT M01/M05 A3036 RMK A01 T10121048  RH  076%=      5-min Rain = 0
KLE1 100547Z 29010KT M01/M05 A3036 RMK A01 T10131048  RH  077%=      5-min Rain = 0
KLE1 100548Z 29010KT M01/M05 A3036 RMK A01 T10131048  RH  077%=      5-min Rain = 0
KLE1 100549Z 29010KT M01/M05 A3036 RMK A01 T10131048  RH  077%=      5-min Rain = 0
KLE1 100550Z 29009KT M01/M05 A3036 RMK A01 T10131048  RH  077%=      5-min Rain = 0
KLE1 100551Z 29009KT M01/M05 A3036 RMK A01 T10131048  RH  077%=      5-min Rain = 0
KLE1 100552Z 29009KT M01/M05 A3036 RMK A01 T10141048  RH  077%=      5-min Rain = 0
KLE1 100553Z 29009KT M01/M05 A3036 RMK A01 T10141049  RH  077%=      5-min Rain = 0
KLE1 100554Z 30009KT M01/M05 A3036 RMK A01 T10141048  RH  077%=      5-min Rain = 0
KLE1 100555Z 30010KT M01/M05 A3036 RMK A01 T10141049  RH  077%=      5-min Rain = 0
KLE1 100556Z 30010KT M01/M05 A3036 RMK A01 T10141049  RH  077%=      5-min Rain = 0
KLE1 100557Z 30009KT M01/M05 A3036 RMK A01 T10131049  RH  076%=      5-min Rain = 0
KLE1 100558Z 31009KT M01/M05 A3036 RMK A01 T10121049  RH  076%=      5-min Rain = 0
KLE1 100559Z 31008KT M01/M05 A3036 RMK A01 T10111050  RH  075%=      5-min Rain = 0

Page generated in 0.1537 seconds.